Wetterdaten: Freitag, 21.03.2014
Datum Zeit Temp. Aussen +5cm Feuchte Auss Luftdruck Regen Sonnenschein Regendauer UV Solar Windben
21.03.2014 00:00 14,9 C 12,2 C 60 % 1006,8 hPa 0,0 l/m 0 min 0 min 0,0 UV-I 0 W/m 15,4 km/h (3 Bft)
21.03.2014 00:02 14,9 C 12,8 C 60 % 1006,7 hPa 0,0 l/m 0 min 0 min 0,0 UV-I 0 W/m 15,4 km/h (3 Bft)
21.03.2014 00:06 15,0 C 12,8 C 60 % 1006,7 hPa 0,0 l/m 0 min 0 min 0,0 UV-I 0 W/m 12,9 km/h (3 Bft)
21.03.2014 00:08 15,1 C 12,8 C 60 % 1006,8 hPa 0,0 l/m 0 min 0 min 0,0 UV-I 0 W/m 18,0 km/h (3 Bft)
21.03.2014 00:10 15,1 C 12,8 C 60 % 1006,7 hPa 0,0 l/m 0 min 0 min 0,0 UV-I 0 W/m 7,7 km/h (2 Bft)
21.03.2014 00:12 15,1 C 12,8 C 60 % 1006,7 hPa 0,0 l/m 0 min 0 min 0,0 UV-I 0 W/m 0,0 km/h (0 Bft)
21.03.2014 00:14 15,1 C 12,8 C 60 % 1006,7 hPa 0,0 l/m 0 min 0 min 0,0 UV-I 0 W/m 15,4 km/h (3 Bft)
21.03.2014 00:16 15,1 C 12,8 C 60 % 1006,7 hPa 0,0 l/m 0 min 0 min 0,0 UV-I 0 W/m 15,4 km/h (3 Bft)
21.03.2014 00:18 15,1 C 12,8 C 60 % 1006,6 hPa 0,0 l/m 0 min 0 min 0,0 UV-I 0 W/m 15,4 km/h (3 Bft)
21.03.2014 00:20 15,1 C 12,8 C 60 % 1006,6 hPa 0,0 l/m 0 min 0 min 0,0 UV-I 0 W/m 5,1 km/h (1 Bft)
21.03.2014 00:22 15,2 C 12,8 C 60 % 1006,6 hPa 0,0 l/m 0 min 0 min 0,0 UV-I 0 W/m 10,3 km/h (2 Bft)
21.03.2014 00:24 15,2 C 12,8 C 60 % 1006,6 hPa 0,0 l/m 0 min 0 min 0,0 UV-I 0 W/m 18,0 km/h (3 Bft)
21.03.2014 00:26 15,2 C 12,8 C 59 % 1006,6 hPa 0,0 l/m 0 min 0 min 0,0 UV-I 0 W/m 15,4 km/h (3 Bft)
21.03.2014 00:28 15,3 C 12,8 C 59 % 1006,6 hPa 0,0 l/m 0 min 0 min 0,0 UV-I 0 W/m 18,0 km/h (3 Bft)
21.03.2014 00:30 15,3 C 12,8 C 59 % 1006,5 hPa 0,0 l/m 0 min 0 min 0,0 UV-I 0 W/m 7,7 km/h (2 Bft)
21.03.2014 00:32 15,3 C 12,8 C 59 % 1006,6 hPa 0,0 l/m 0 min 0 min 0,0 UV-I 0 W/m 20,6 km/h (4 Bft)
21.03.2014 00:34 15,3 C 12,8 C 59 % 1006,6 hPa 0,0 l/m 0 min 0 min 0,0 UV-I 0 W/m 15,4 km/h (3 Bft)
21.03.2014 00:36 15,3 C 12,8 C 59 % 1006,6 hPa 0,0 l/m 0 min 0 min 0,0 UV-I 0 W/m 10,3 km/h (2 Bft)
21.03.2014 00:38 15,3 C 12,8 C 59 % 1006,5 hPa 0,0 l/m 0 min 0 min 0,0 UV-I 0 W/m 2,6 km/h (1 Bft)
21.03.2014 00:40 15,3 C 12,8 C 59 % 1006,5 hPa 0,0 l/m 0 min 0 min 0,0 UV-I 0 W/m 18,0 km/h (3 Bft)
21.03.2014 00:42 15,3 C 12,8 C 60 % 1006,5 hPa 0,0 l/m 0 min 0 min 0,0 UV-I 0 W/m 12,9 km/h (3 Bft)
21.03.2014 00:44 15,3 C 12,8 C 59 % 1006,5 hPa 0,0 l/m 0 min 0 min 0,0 UV-I 0 W/m 18,0 km/h (3 Bft)
21.03.2014 00:46 15,3 C 12,8 C 59 % 1006,5 hPa 0,0 l/m 0 min 0 min 0,0 UV-I 0 W/m 18,0 km/h (3 Bft)
21.03.2014 00:48 15,3 C 12,8 C 60 % 1006,5 hPa 0,0 l/m 0 min 0 min 0,0 UV-I 0 W/m 15,4 km/h (3 Bft)
21.03.2014 00:50 15,3 C 12,8 C 60 % 1006,5 hPa 0,0 l/m 0 min 0 min 0,0 UV-I 0 W/m 12,9 km/h (3 Bft)
21.03.2014 00:52 15,3 C 12,8 C 60 % 1006,5 hPa 0,0 l/m 0 min 0 min 0,0 UV-I 0 W/m 10,3 km/h (2 Bft)
21.03.2014 00:54 15,3 C 12,8 C 60 % 1006,4 hPa 0,0 l/m 0 min 0 min 0,0 UV-I 0 W/m 15,4 km/h (3 Bft)
21.03.2014 00:56 15,2 C 12,8 C 60 % 1006,5 hPa 0,0 l/m 0 min 0 min 0,0 UV-I 0 W/m 10,3 km/h (2 Bft)
21.03.2014 00:58 15,2 C 12,8 C 60 % 1006,5 hPa 0,0 l/m 0 min 0 min 0,0 UV-I 0 W/m 30,9 km/h (5 Bft)
21.03.2014 01:00 15,2 C 12,8 C 60 % 1006,5 hPa 0,0 l/m 0 min 0 min 0,0 UV-I 0 W/m 15,4 km/h (3 Bft)
21.03.2014 01:03 15,2 C 12,8 C 60 % 1006,4 hPa 0,0 l/m 0 min 0 min 0,0 UV-I 0 W/m 12,9 km/h (3 Bft)
21.03.2014 01:04 15,2 C 12,8 C 60 % 1006,4 hPa 0,0 l/m 0 min 0 min 0,0 UV-I 0 W/m 7,7 km/h (2 Bft)
21.03.2014 01:06 15,2 C 12,8 C 60 % 1006,5 hPa 0,0 l/m 0 min 0 min 0,0 UV-I 0 W/m 20,6 km/h (4 Bft)
21.03.2014 01:08 15,2 C 12,8 C 60 % 1006,4 hPa 0,0 l/m 0 min 0 min 0,0 UV-I 0 W/m 5,1 km/h (1 Bft)
21.03.2014 01:10 15,2 C 12,8 C 60 % 1006,4 hPa 0,0 l/m 0 min 0 min 0,0 UV-I 0 W/m 10,3 km/h (2 Bft)
21.03.2014 01:12 15,1 C 12,8 C 61 % 1006,5 hPa 0,0 l/m 0 min 0 min 0,0 UV-I 0 W/m 7,7 km/h (2 Bft)
21.03.2014 01:14 15,1 C 12,8 C 61 % 1006,4 hPa 0,0 l/m 0 min 0 min 0,0 UV-I 0 W/m 15,4 km/h (3 Bft)
21.03.2014 01:16 15,1 C 12,8 C 61 % 1006,4 hPa 0,0 l/m 0 min 0 min 0,0 UV-I 0 W/m 7,7 km/h (2 Bft)
21.03.2014 01:18 15,1 C 12,8 C 61 % 1006,4 hPa 0,0 l/m 0 min 0 min 0,0 UV-I 0 W/m 23,2 km/h (4 Bft)
21.03.2014 01:20 15,1 C 12,8 C 61 % 1006,4 hPa 0,0 l/m 0 min 0 min 0,0 UV-I 0 W/m 12,9 km/h (3 Bft)
21.03.2014 01:22 15,1 C 12,8 C 61 % 1006,4 hPa 0,0 l/m 0 min 0 min 0,0 UV-I 0 W/m 15,4 km/h (3 Bft)
21.03.2014 01:24 15,1 C 12,8 C 61 % 1006,4 hPa 0,0 l/m 0 min 0 min 0,0 UV-I 0 W/m 15,4 km/h (3 Bft)
21.03.2014 01:26 15,1 C 12,8 C 61 % 1006,4 hPa 0,0 l/m 0 min 0 min 0,0 UV-I 0 W/m 2,6 km/h (1 Bft)
21.03.2014 01:28 15,1 C 12,8 C 61 % 1006,4 hPa 0,0 l/m 0 min 0 min 0,0 UV-I 0 W/m 10,3 km/h (2 Bft)
21.03.2014 01:30 15,1 C 12,8 C 61 % 1006,4 hPa 0,0 l/m 0 min 0 min 0,0 UV-I 0 W/m 10,3 km/h (2 Bft)
21.03.2014 01:32 15,1 C 12,8 C 61 % 1006,4 hPa 0,0 l/m 0 min 0 min 0,0 UV-I 0 W/m 12,9 km/h (3 Bft)
21.03.2014 01:34 15,1 C 12,8 C 61 % 1006,4 hPa 0,0 l/m 0 min 0 min 0,0 UV-I 0 W/m 33,5 km/h (5 Bft)
21.03.2014 01:36 15,1 C 12,8 C 61 % 1006,4 hPa 0,0 l/m 0 min 0 min 0,0 UV-I 0 W/m 15,4 km/h (3 Bft)
21.03.2014 01:38 15,1 C 12,8 C 61 % 1006,4 hPa 0,0 l/m 0 min 0 min 0,0 UV-I 0 W/m 10,3 km/h (2 Bft)
21.03.2014 01:40 15,1 C 12,8 C 61 % 1006,3 hPa 0,0 l/m 0 min 0 min 0,0 UV-I 0 W/m 5,1 km/h (1 Bft)
21.03.2014 01:42 15,0 C 12,8 C 61 % 1006,4 hPa 0,0 l/m 0 min 0 min 0,0 UV-I 0 W/m 10,3 km/h (2 Bft)
21.03.2014 01:44 15,0 C 12,8 C 62 % 1006,4 hPa 0,0 l/m 0 min 0 min 0,0 UV-I 0 W/m 7,7 km/h (2 Bft)
21.03.2014 01:46 14,9 C 12,8 C 62 % 1006,3 hPa 0,0 l/m 0 min 0 min 0,0 UV-I 0 W/m 20,6 km/h (4 Bft)
21.03.2014 01:48 14,9 C 12,8 C 62 % 1006,2 hPa 0,0 l/m 0 min 0 min 0,0 UV-I 0 W/m 23,2 km/h (4 Bft)
21.03.2014 01:50 14,9 C 12,8 C 62 % 1006,3 hPa 0,0 l/m 0 min 0 min 0,0 UV-I 0 W/m 10,3 km/h (2 Bft)
21.03.2014 01:52 14,9 C 12,8 C 62 % 1006,2 hPa 0,0 l/m 0 min 0 min 0,0 UV-I 0 W/m 12,9 km/h (3 Bft)
21.03.2014 01:54 14,9 C 12,8 C 62 % 1006,3 hPa 0,0 l/m 0 min 0 min 0,0 UV-I 0 W/m 15,4 km/h (3 Bft)
21.03.2014 01:56 14,9 C 12,8 C 62 % 1006,3 hPa 0,0 l/m 0 min 0 min 0,0 UV-I 0 W/m 10,3 km/h (2 Bft)
21.03.2014 01:58 14,9 C 12,8 C 62 % 1006,3 hPa 0,0 l/m 0 min 0 min 0,0 UV-I 0 W/m 12,9 km/h (3 Bft)
21.03.2014 02:00 14,9 C 12,8 C 62 % 1006,3 hPa 0,0 l/m 0 min 0 min 0,0 UV-I 0 W/m 23,2 km/h (4 Bft)
21.03.2014 02:02 15,0 C 12,8 C 62 % 1006,2 hPa 0,0 l/m 0 min 0 min 0,0 UV-I 0 W/m 18,0 km/h (3 Bft)
21.03.2014 02:06 15,0 C 12,8 C 62 % 1006,2 hPa 0,0 l/m 0 min 0 min 0,0 UV-I 0 W/m 10,3 km/h (2 Bft)
21.03.2014 02:08 15,0 C 12,8 C 62 % 1006,3 hPa 0,0 l/m 0 min 0 min 0,0 UV-I 0 W/m 7,7 km/h (2 Bft)
21.03.2014 02:10 15,0 C 12,8 C 62 % 1006,3 hPa 0,0 l/m 0 min 0 min 0,0 UV-I 0 W/m 7,7 km/h (2 Bft)
21.03.2014 02:12 15,0 C 12,8 C 62 % 1006,3 hPa 0,0 l/m 0 min 0 min 0,0 UV-I 0 W/m 5,1 km/h (1 Bft)
21.03.2014 02:14 15,0 C 12,8 C 62 % 1006,3 hPa 0,0 l/m 0 min 0 min 0,0 UV-I 0 W/m 10,3 km/h (2 Bft)
21.03.2014 02:16 15,0 C 12,8 C 62 % 1006,2 hPa 0,0 l/m 0 min 0 min 0,0 UV-I 0 W/m 10,3 km/h (2 Bft)
21.03.2014 02:18 15,0 C 12,8 C 62 % 1006,2 hPa 0,0 l/m 0 min 0 min 0,0 UV-I 0 W/m 18,0 km/h (3 Bft)
21.03.2014 02:20 15,1 C 12,8 C 62 % 1006,2 hPa 0,0 l/m 0 min 0 min 0,0 UV-I 0 W/m 18,0 km/h (3 Bft)
21.03.2014 02:22 15,1 C 12,8 C 62 % 1006,2 hPa 0,0 l/m 0 min 0 min 0,0 UV-I 0 W/m 12,9 km/h (3 Bft)
21.03.2014 02:24 15,1 C 12,8 C 62 % 1006,2 hPa 0,0 l/m 0 min 0 min 0,0 UV-I 0 W/m 20,6 km/h (4 Bft)
21.03.2014 02:26 15,1 C 12,8 C 62 % 1006,2 hPa 0,0 l/m 0 min 0 min 0,0 UV-I 0 W/m 10,3 km/h (2 Bft)
21.03.2014 02:28 15,1 C 12,8 C 62 % 1006,2 hPa 0,0 l/m 0 min 0 min 0,0 UV-I 0 W/m 10,3 km/h (2 Bft)
21.03.2014 02:30 15,1 C 12,8 C 62 % 1006,2 hPa 0,0 l/m 0 min 0 min 0,0 UV-I 0 W/m 2,6 km/h (1 Bft)
21.03.2014 02:32 15,0 C 12,8 C 62 % 1006,1 hPa 0,0 l/m 0 min 0 min 0,0 UV-I 0 W/m 15,4 km/h (3 Bft)
21.03.2014 02:34 15,0 C 12,8 C 62 % 1006,1 hPa 0,0 l/m 0 min 0 min 0,0 UV-I 0 W/m 12,9 km/h (3 Bft)
21.03.2014 02:36 15,0 C 12,8 C 63 % 1006,1 hPa 0,0 l/m 0 min 0 min 0,0 UV-I 0 W/m 10,3 km/h (2 Bft)
21.03.2014 02:38 14,9 C 12,8 C 63 % 1006,1 hPa 0,0 l/m 0 min 0 min 0,0 UV-I 0 W/m 2,6 km/h (1 Bft)
21.03.2014 02:40 14,9 C 12,8 C 63 % 1006,1 hPa 0,0 l/m 0 min 0 min 0,0 UV-I 0 W/m 12,9 km/h (3 Bft)
21.03.2014 02:42 14,9 C 12,8 C 63 % 1006,2 hPa 0,0 l/m 0 min 0 min 0,0 UV-I 0 W/m 5,1 km/h (1 Bft)
21.03.2014 02:44 14,9 C 12,8 C 63 % 1006,2 hPa 0,0 l/m 0 min 0 min 0,0 UV-I 0 W/m 15,4 km/h (3 Bft)
21.03.2014 02:46 14,8 C 12,8 C 63 % 1006,1 hPa 0,0 l/m 0 min 0 min 0,0 UV-I 0 W/m 7,7 km/h (2 Bft)
21.03.2014 02:48 14,8 C 12,8 C 63 % 1006,1 hPa 0,0 l/m 0 min 0 min 0,0 UV-I 0 W/m 12,9 km/h (3 Bft)
21.03.2014 02:50 14,8 C 12,2 C 63 % 1006,2 hPa 0,0 l/m 0 min 0 min 0,0 UV-I 0 W/m 10,3 km/h (2 Bft)
21.03.2014 02:52 14,7 C 12,2 C 64 % 1006,2 hPa 0,0 l/m 0 min 0 min 0,0 UV-I 0 W/m 10,3 km/h (2 Bft)
21.03.2014 02:54 14,7 C 12,2 C 64 % 1006,2 hPa 0,0 l/m 0 min 0 min 0,0 UV-I 0 W/m 10,3 km/h (2 Bft)
21.03.2014 02:56 14,6 C 12,2 C 64 % 1006,2 hPa 0,0 l/m 0 min 0 min 0,0 UV-I 0 W/m 7,7 km/h (2 Bft)
21.03.2014 02:58 14,6 C 12,2 C 64 % 1006,2 hPa 0,0 l/m 0 min 0 min 0,0 UV-I 0 W/m 10,3 km/h (2 Bft)
21.03.2014 03:00 14,6 C 12,2 C 64 % 1006,2 hPa 0,0 l/m 0 min 0 min 0,0 UV-I 0 W/m 7,7 km/h (2 Bft)
21.03.2014 03:02 14,6 C 12,2 C 64 % 1006,2 hPa 0,0 l/m 0 min 0 min 0,0 UV-I 0 W/m 7,7 km/h (2 Bft)
21.03.2014 03:06 14,5 C 12,2 C 65 % 1006,2 hPa 0,0 l/m 0 min 0 min 0,0 UV-I 0 W/m 12,9 km/h (3 Bft)
21.03.2014 03:08 14,5 C 12,2 C 65 % 1006,2 hPa 0,0 l/m 0 min 0 min 0,0 UV-I 0 W/m 15,4 km/h (3 Bft)
21.03.2014 03:10 14,5 C 12,2 C 65 % 1006,2 hPa 0,0 l/m 0 min 0 min 0,0 UV-I 0 W/m 12,9 km/h (3 Bft)
21.03.2014 03:12 14,5 C 12,2 C 65 % 1006,1 hPa 0,0 l/m 0 min 0 min 0,0 UV-I 0 W/m 20,6 km/h (4 Bft)
21.03.2014 03:14 14,4 C 12,2 C 65 % 1006,1 hPa 0,0 l/m 0 min 0 min 0,0 UV-I 0 W/m 12,9 km/h (3 Bft)
21.03.2014 03:16 14,4 C 12,2 C 65 % 1006,1 hPa 0,0 l/m 0 min 0 min 0,0 UV-I 0 W/m 23,2 km/h (4 Bft)
21.03.2014 03:18 14,4 C 12,2 C 65 % 1006,1 hPa 0,0 l/m 0 min 0 min 0,0 UV-I 0 W/m 18,0 km/h (3 Bft)
21.03.2014 03:20 14,4 C 12,2 C 65 % 1006,1 hPa 0,0 l/m 0 min 0 min 0,0 UV-I 0 W/m 18,0 km/h (3 Bft)
21.03.2014 03:22 14,5 C 12,2 C 65 % 1006,1 hPa 0,0 l/m 0 min 0 min 0,0 UV-I 0 W/m 18,0 km/h (3 Bft)
21.03.2014 03:24 14,5 C 12,2 C 65 % 1006,1 hPa 0,0 l/m 0 min 0 min 0,0 UV-I 0 W/m 15,4 km/h (3 Bft)
21.03.2014 03:26 14,4 C 12,2 C 65 % 1006,2 hPa 0,0 l/m 0 min 0 min 0,0 UV-I 0 W/m 15,4 km/h (3 Bft)
21.03.2014 03:28 14,4 C 12,2 C 65 % 1006,2 hPa 0,0 l/m 0 min 0 min 0,0 UV-I 0 W/m 5,1 km/h (1 Bft)
21.03.2014 03:30 14,4 C 12,2 C 65 % 1006,2 hPa 0,0 l/m 0 min 0 min 0,0 UV-I 0 W/m 10,3 km/h (2 Bft)
21.03.2014 03:32 14,3 C 12,2 C 65 % 1006,2 hPa 0,0 l/m 0 min 0 min 0,0 UV-I 0 W/m 7,7 km/h (2 Bft)
21.03.2014 03:34 14,2 C 12,2 C 66 % 1006,2 hPa 0,0 l/m 0 min 0 min 0,0 UV-I 0 W/m 10,3 km/h (2 Bft)
21.03.2014 03:36 14,2 C 12,2 C 66 % 1006,2 hPa 0,0 l/m 0 min 0 min 0,0 UV-I 0 W/m 0,0 km/h (0 Bft)
21.03.2014 03:38 14,2 C 12,2 C 66 % 1006,2 hPa 0,0 l/m 0 min 0 min 0,0 UV-I 0 W/m 10,3 km/h (2 Bft)
21.03.2014 03:40 14,2 C 12,2 C 66 % 1006,2 hPa 0,0 l/m 0 min 0 min 0,0 UV-I 0 W/m 2,6 km/h (1 Bft)
21.03.2014 03:42 14,2 C 12,2 C 66 % 1006,2 hPa 0,0 l/m 0 min 0 min 0,0 UV-I 0 W/m 7,7 km/h (2 Bft)
21.03.2014 03:44 14,2 C 12,2 C 67 % 1006,3 hPa 0,0 l/m 0 min 0 min 0,0 UV-I 0 W/m 12,9 km/h (3 Bft)
21.03.2014 03:46 14,2 C 12,2 C 67 % 1006,2 hPa 0,0 l/m 0 min 0 min 0,0 UV-I 0 W/m 15,4 km/h (3 Bft)
21.03.2014 03:48 14,2 C 12,2 C 66 % 1006,2 hPa 0,0 l/m 0 min 0 min 0,0 UV-I 0 W/m 12,9 km/h (3 Bft)
21.03.2014 03:50 14,2 C 12,2 C 67 % 1006,3 hPa 0,0 l/m 0 min 0 min 0,0 UV-I 0 W/m 5,1 km/h (1 Bft)
21.03.2014 03:52 14,2 C 12,2 C 67 % 1006,2 hPa 0,0 l/m 0 min 0 min 0,0 UV-I 0 W/m 12,9 km/h (3 Bft)
21.03.2014 03:54 14,1 C 12,2 C 67 % 1006,2 hPa 0,0 l/m 0 min 0 min 0,0 UV-I 0 W/m 5,1 km/h (1 Bft)
21.03.2014 03:56 14,1 C 12,2 C 67 % 1006,3 hPa 0,0 l/m 0 min 0 min 0,0 UV-I 0 W/m 20,6 km/h (4 Bft)
21.03.2014 03:58 14,1 C 12,2 C 67 % 1006,2 hPa 0,0 l/m 0 min 0 min 0,0 UV-I 0 W/m 12,9 km/h (3 Bft)
21.03.2014 04:00 14,1 C 12,2 C 67 % 1006,2 hPa 0,0 l/m 0 min 0 min 0,0 UV-I 0 W/m 18,0 km/h (3 Bft)
21.03.2014 04:05 14,0 C 12,2 C 67 % 1006,2 hPa 0,0 l/m 0 min 0 min 0,0 UV-I 0 W/m 18,0 km/h (3 Bft)
21.03.2014 04:06 14,0 C 11,7 C 67 % 1006,3 hPa 0,0 l/m 0 min 0 min 0,0 UV-I 0 W/m 7,7 km/h (2 Bft)
21.03.2014 04:08 13,9 C 11,7 C 68 % 1006,2 hPa 0,0 l/m 0 min 0 min 0,0 UV-I 0 W/m 10,3 km/h (2 Bft)
21.03.2014 04:10 13,9 C 11,7 C 68 % 1006,3 hPa 0,0 l/m 0 min 0 min 0,0 UV-I 0 W/m 15,4 km/h (3 Bft)
21.03.2014 04:12 13,9 C 12,2 C 68 % 1006,2 hPa 0,0 l/m 0 min 0 min 0,0 UV-I 0 W/m 15,4 km/h (3 Bft)
21.03.2014 04:14 13,9 C 12,2 C 68 % 1006,2 hPa 0,0 l/m 0 min 0 min 0,0 UV-I 0 W/m 20,6 km/h (4 Bft)
21.03.2014 04:16 13,9 C 12,2 C 68 % 1006,2 hPa 0,0 l/m 0 min 0 min 0,0 UV-I 0 W/m 12,9 km/h (3 Bft)
21.03.2014 04:18 13,9 C 12,2 C 68 % 1006,2 hPa 0,0 l/m 0 min 0 min 0,0 UV-I 0 W/m 10,3 km/h (2 Bft)
21.03.2014 04:20 13,8 C 12,2 C 68 % 1006,3 hPa 0,0 l/m 0 min 0 min 0,0 UV-I 0 W/m 15,4 km/h (3 Bft)
21.03.2014 04:22 13,8 C 11,7 C 68 % 1006,2 hPa 0,0 l/m 0 min 0 min 0,0 UV-I 0 W/m 10,3 km/h (2 Bft)
21.03.2014 04:24 13,8 C 11,7 C 69 % 1006,2 hPa 0,0 l/m 0 min 0 min 0,0 UV-I 0 W/m 7,7 km/h (2 Bft)
21.03.2014 04:26 13,8 C 11,7 C 68 % 1006,2 hPa 0,0 l/m 0 min 0 min 0,0 UV-I 0 W/m 5,1 km/h (1 Bft)
21.03.2014 04:28 13,7 C 11,7 C 69 % 1006,2 hPa 0,0 l/m 0 min 0 min 0,0 UV-I 0 W/m 10,3 km/h (2 Bft)
21.03.2014 04:30 13,7 C 11,7 C 69 % 1006,2 hPa 0,0 l/m 0 min 0 min 0,0 UV-I 0 W/m 7,7 km/h (2 Bft)
21.03.2014 04:32 13,6 C 11,7 C 69 % 1006,2 hPa 0,0 l/m 0 min 0 min 0,0 UV-I 0 W/m 7,7 km/h (2 Bft)
21.03.2014 04:34 13,6 C 11,7 C 69 % 1006,1 hPa 0,0 l/m 0 min 0 min 0,0 UV-I 0 W/m 10,3 km/h (2 Bft)
21.03.2014 04:36 13,6 C 11,7 C 69 % 1006,2 hPa 0,0 l/m 0 min 0 min 0,0 UV-I 0 W/m 20,6 km/h (4 Bft)
21.03.2014 04:38 13,6 C 11,7 C 69 % 1006,1 hPa 0,0 l/m 0 min 0 min 0,0 UV-I 0 W/m 20,6 km/h (4 Bft)
21.03.2014 04:40 13,6 C 11,7 C 70 % 1006,1 hPa 0,0 l/m 0 min 0 min 0,0 UV-I 0 W/m 23,2 km/h (4 Bft)
21.03.2014 04:42 13,6 C 11,7 C 70 % 1006,1 hPa 0,0 l/m 0 min 0 min 0,0 UV-I 0 W/m 12,9 km/h (3 Bft)
21.03.2014 04:44 13,6 C 11,7 C 70 % 1006,2 hPa 0,0 l/m 0 min 0 min 0,0 UV-I 0 W/m 18,0 km/h (3 Bft)
21.03.2014 04:46 13,6 C 11,7 C 70 % 1006,1 hPa 0,0 l/m 0 min 0 min 0,0 UV-I 0 W/m 10,3 km/h (2 Bft)
21.03.2014 04:48 13,5 C 11,7 C 70 % 1006,1 hPa 0,0 l/m 0 min 0 min 0,0 UV-I 0 W/m 18,0 km/h (3 Bft)
21.03.2014 04:50 13,5 C 11,7 C 70 % 1006,1 hPa 0,0 l/m 0 min 0 min 0,0 UV-I 0 W/m 20,6 km/h (4 Bft)
21.03.2014 04:52 13,5 C 11,7 C 70 % 1006,1 hPa 0,0 l/m 0 min 0 min 0,0 UV-I 0 W/m 10,3 km/h (2 Bft)
21.03.2014 04:54 13,4 C 11,7 C 70 % 1006,0 hPa 0,0 l/m 0 min 0 min 0,0 UV-I 0 W/m 12,9 km/h (3 Bft)
21.03.2014 04:56 13,4 C 11,7 C 70 % 1006,0 hPa 0,0 l/m 0 min 0 min 0,0 UV-I 0 W/m 7,7 km/h (2 Bft)
21.03.2014 04:58 13,4 C 11,7 C 70 % 1006,1 hPa 0,0 l/m 0 min 0 min 0,0 UV-I 0 W/m 12,9 km/h (3 Bft)
21.03.2014 05:00 13,3 C 11,7 C 70 % 1006,1 hPa 0,0 l/m 0 min 0 min 0,0 UV-I 0 W/m 10,3 km/h (2 Bft)
21.03.2014 05:02 13,3 C 11,7 C 70 % 1006,1 hPa 0,0 l/m 0 min 0 min 0,0 UV-I 0 W/m 10,3 km/h (2 Bft)
21.03.2014 05:06 13,3 C 11,7 C 71 % 1006,1 hPa 0,0 l/m 0 min 0 min 0,0 UV-I 0 W/m 25,7 km/h (4 Bft)
21.03.2014 05:08 13,3 C 11,7 C 71 % 1006,0 hPa 0,0 l/m 0 min 0 min 0,0 UV-I 0 W/m 5,1 km/h (1 Bft)
21.03.2014 05:10 13,2 C 11,1 C 71 % 1006,1 hPa 0,0 l/m 0 min 0 min 0,0 UV-I 0 W/m 5,1 km/h (1 Bft)
21.03.2014 05:12 13,2 C 11,7 C 71 % 1006,0 hPa 0,0 l/m 0 min 0 min 0,0 UV-I 0 W/m 12,9 km/h (3 Bft)
21.03.2014 05:14 13,2 C 11,7 C 71 % 1006,0 hPa 0,0 l/m 0 min 0 min 0,0 UV-I 0 W/m 12,9 km/h (3 Bft)
21.03.2014 05:16 13,2 C 11,7 C 71 % 1006,0 hPa 0,0 l/m 0 min 0 min 0,0 UV-I 0 W/m 20,6 km/h (4 Bft)
21.03.2014 05:18 13,2 C 11,7 C 71 % 1006,1 hPa 0,0 l/m 0 min 0 min 0,0 UV-I 0 W/m 23,2 km/h (4 Bft)
21.03.2014 05:20 13,2 C 11,1 C 71 % 1006,0 hPa 0,0 l/m 0 min 0 min 0,0 UV-I 0 W/m 7,7 km/h (2 Bft)
21.03.2014 05:22 13,2 C 11,1 C 71 % 1006,0 hPa 0,0 l/m 0 min 0 min 0,0 UV-I 0 W/m 20,6 km/h (4 Bft)
21.03.2014 05:24 13,1 C 11,1 C 71 % 1005,9 hPa 0,0 l/m 0 min 0 min 0,0 UV-I 0 W/m 18,0 km/h (3 Bft)
21.03.2014 05:26 13,1 C 11,7 C 71 % 1006,0 hPa 0,0 l/m 0 min 0 min 0,0 UV-I 0 W/m 10,3 km/h (2 Bft)
21.03.2014 05:28 13,1 C 11,7 C 71 % 1006,0 hPa 0,0 l/m 0 min 0 min 0,0 UV-I 0 W/m 7,7 km/h (2 Bft)
21.03.2014 05:30 13,1 C 11,1 C 72 % 1006,0 hPa 0,0 l/m 0 min 0 min 0,0 UV-I 0 W/m 7,7 km/h (2 Bft)
21.03.2014 05:32 13,1 C 11,1 C 72 % 1006,0 hPa 0,0 l/m 0 min 0 min 0,0 UV-I 0 W/m 7,7 km/h (2 Bft)
21.03.2014 05:34 13,0 C 11,1 C 72 % 1006,0 hPa 0,0 l/m 0 min 0 min 0,0 UV-I 0 W/m 2,6 km/h (1 Bft)
21.03.2014 05:36 13,0 C 11,1 C 72 % 1005,9 hPa 0,0 l/m 0 min 0 min 0,0 UV-I 0 W/m 10,3 km/h (2 Bft)
21.03.2014 05:38 12,9 C 11,1 C 72 % 1005,9 hPa 0,0 l/m 0 min 0 min 0,0 UV-I 0 W/m 5,1 km/h (1 Bft)
21.03.2014 05:40 12,9 C 11,1 C 72 % 1005,9 hPa 0,0 l/m 0 min 0 min 0,0 UV-I 0 W/m 20,6 km/h (4 Bft)
21.03.2014 05:42 12,9 C 11,1 C 72 % 1005,9 hPa 0,0 l/m 0 min 0 min 0,0 UV-I 0 W/m 5,1 km/h (1 Bft)
21.03.2014 05:44 12,9 C 11,1 C 72 % 1005,9 hPa 0,0 l/m 0 min 0 min 0,0 UV-I 0 W/m 12,9 km/h (3 Bft)
21.03.2014 05:46 12,9 C 11,1 C 72 % 1005,9 hPa 0,0 l/m 0 min 0 min 0,0 UV-I 0 W/m 25,7 km/h (4 Bft)
21.03.2014 05:48 12,8 C 11,1 C 72 % 1005,9 hPa 0,0 l/m 0 min 0 min 0,0 UV-I 0 W/m 2,6 km/h (1 Bft)
21.03.2014 05:50 12,8 C 11,1 C 72 % 1005,8 hPa 0,0 l/m 0 min 0 min 0,0 UV-I 0 W/m 7,7 km/h (2 Bft)
21.03.2014 05:52 12,8 C 11,1 C 72 % 1005,8 hPa 0,0 l/m 0 min 0 min 0,0 UV-I 0 W/m 10,3 km/h (2 Bft)
21.03.2014 05:54 12,8 C 11,1 C 72 % 1005,7 hPa 0,0 l/m 0 min 0 min 0,0 UV-I 0 W/m 7,7 km/h (2 Bft)
21.03.2014 05:56 12,8 C 11,1 C 73 % 1005,7 hPa 0,0 l/m 0 min 0 min 0,0 UV-I 0 W/m 10,3 km/h (2 Bft)
21.03.2014 05:58 12,7 C 11,1 C 73 % 1005,7 hPa 0,0 l/m 0 min 0 min 0,0 UV-I 0 W/m 15,4 km/h (3 Bft)
21.03.2014 06:00 12,7 C 11,1 C 73 % 1005,7 hPa 0,0 l/m 0 min 0 min 0,0 UV-I 0 W/m 18,0 km/h (3 Bft)
21.03.2014 06:02 12,7 C 11,1 C 73 % 1005,7 hPa 0,0 l/m 0 min 0 min 0,0 UV-I 0 W/m 7,7 km/h (2 Bft)
21.03.2014 06:06 12,7 C 11,1 C 73 % 1005,7 hPa 0,0 l/m 0 min 0 min 0,0 UV-I 0 W/m 10,3 km/h (2 Bft)
21.03.2014 06:08 12,7 C 11,1 C 73 % 1005,7 hPa 0,0 l/m 0 min 0 min 0,0 UV-I 0 W/m 12,9 km/h (3 Bft)
21.03.2014 06:10 12,7 C 11,1 C 72 % 1005,7 hPa 0,0 l/m 0 min 0 min 0,0 UV-I 0 W/m 15,4 km/h (3 Bft)
21.03.2014 06:12 12,7 C 11,1 C 73 % 1005,7 hPa 0,0 l/m 0 min 0 min 0,0 UV-I 0 W/m 15,4 km/h (3 Bft)
21.03.2014 06:14 12,7 C 11,1 C 72 % 1005,6 hPa 0,0 l/m 0 min 0 min 0,0 UV-I 0 W/m 12,9 km/h (3 Bft)
21.03.2014 06:16 12,7 C 11,1 C 73 % 1005,7 hPa 0,0 l/m 0 min 0 min 0,0 UV-I 0 W/m 15,4 km/h (3 Bft)
21.03.2014 06:18 12,7 C 11,1 C 73 % 1005,6 hPa 0,0 l/m 0 min 0 min 0,0 UV-I 0 W/m 7,7 km/h (2 Bft)
21.03.2014 06:20 12,6 C 11,1 C 73 % 1005,6 hPa 0,0 l/m 0 min 0 min 0,0 UV-I 0 W/m 12,9 km/h (3 Bft)
21.03.2014 06:22 12,6 C 10,6 C 73 % 1005,6 hPa 0,0 l/m 0 min 0 min 0,0 UV-I 0 W/m 7,7 km/h (2 Bft)
21.03.2014 06:24 12,6 C 10,6 C 73 % 1005,6 hPa 0,0 l/m 0 min 0 min 0,0 UV-I 0 W/m 10,3 km/h (2 Bft)
21.03.2014 06:26 12,6 C 10,6 C 73 % 1005,6 hPa 0,0 l/m 0 min 0 min 0,0 UV-I 5 W/m 12,9 km/h (3 Bft)
21.03.2014 06:28 12,5 C 10,6 C 73 % 1005,6 hPa 0,0 l/m 0 min 0 min 0,0 UV-I 5 W/m 2,6 km/h (1 Bft)
21.03.2014 06:30 12,4 C 10,6 C 73 % 1005,7 hPa 0,0 l/m 0 min 0 min 0,0 UV-I 5 W/m 12,9 km/h (3 Bft)
21.03.2014 06:32 12,4 C 10,6 C 73 % 1005,7 hPa 0,0 l/m 0 min 0 min 0,0 UV-I 0 W/m 5,1 km/h (1 Bft)
21.03.2014 06:34 12,4 C 10,6 C 73 % 1005,6 hPa 0,0 l/m 0 min 0 min 0,0 UV-I 0 W/m 7,7 km/h (2 Bft)
21.03.2014 06:36 12,4 C 10,6 C 74 % 1005,6 hPa 0,0 l/m 0 min 0 min 0,0 UV-I 0 W/m 7,7 km/h (2 Bft)
21.03.2014 06:38 12,4 C 10,6 C 74 % 1005,6 hPa 0,0 l/m 0 min 0 min 0,0 UV-I 0 W/m 2,6 km/h (1 Bft)
21.03.2014 06:40 12,3 C 10,6 C 74 % 1005,7 hPa 0,0 l/m 0 min 0 min 0,0 UV-I 0 W/m 10,3 km/h (2 Bft)
21.03.2014 06:42 12,3 C 10,6 C 74 % 1005,6 hPa 0,0 l/m 0 min 0 min 0,0 UV-I 0 W/m 10,3 km/h (2 Bft)
21.03.2014 06:44 12,3 C 10,6 C 74 % 1005,6 hPa 0,0 l/m 0 min 0 min 0,0 UV-I 0 W/m 7,7 km/h (2 Bft)
21.03.2014 06:46 12,3 C 10,6 C 74 % 1005,6 hPa 0,0 l/m 0 min 0 min 0,0 UV-I 5 W/m 5,1 km/h (1 Bft)
21.03.2014 06:48 12,3 C 10,6 C 74 % 1005,6 hPa 0,0 l/m 0 min 0 min 0,0 UV-I 5 W/m 5,1 km/h (1 Bft)
21.03.2014 06:50 12,3 C 10,6 C 74 % 1005,6 hPa 0,0 l/m 0 min 0 min 0,0 UV-I 7 W/m 0,0 km/h (0 Bft)
21.03.2014 06:52 12,3 C 10,6 C 75 % 1005,6 hPa 0,0 l/m 0 min 0 min 0,0 UV-I 7 W/m 0,0 km/h (0 Bft)
21.03.2014 06:54 12,2 C 10,6 C 75 % 1005,6 hPa 0,0 l/m 0 min 0 min 0,0 UV-I 9 W/m 10,3 km/h (2 Bft)
21.03.2014 06:56 12,2 C 10,6 C 75 % 1005,5 hPa 0,0 l/m 0 min 0 min 0,0 UV-I 9 W/m 10,3 km/h (2 Bft)
21.03.2014 06:58 12,2 C 10,6 C 75 % 1005,6 hPa 0,0 l/m 0 min 0 min 0,0 UV-I 11 W/m 7,7 km/h (2 Bft)
21.03.2014 07:00 12,2 C 10,6 C 75 % 1005,6 hPa 0,0 l/m 0 min 0 min 0,0 UV-I 12 W/m 7,7 km/h (2 Bft)
21.03.2014 07:02 12,2 C 10,6 C 75 % 1005,6 hPa 0,0 l/m 0 min 0 min 0,0 UV-I 12 W/m 7,7 km/h (2 Bft)
21.03.2014 07:06 12,2 C 10,6 C 75 % 1005,6 hPa 0,0 l/m 0 min 0 min 0,0 UV-I 16 W/m 12,9 km/h (3 Bft)
21.03.2014 07:08 12,1 C 10,6 C 75 % 1005,6 hPa 0,0 l/m 0 min 0 min 0,0 UV-I 16 W/m 7,7 km/h (2 Bft)
21.03.2014 07:10 12,1 C 10,6 C 75 % 1005,6 hPa 0,0 l/m 0 min 0 min 0,0 UV-I 18 W/m 15,4 km/h (3 Bft)
21.03.2014 07:12 12,2 C 10,6 C 75 % 1005,6 hPa 0,0 l/m 0 min 0 min 0,0 UV-I 19 W/m 15,4 km/h (3 Bft)
21.03.2014 07:14 12,2 C 10,6 C 75 % 1005,6 hPa 0,0 l/m 0 min 0 min 0,0 UV-I 21 W/m 10,3 km/h (2 Bft)
21.03.2014 07:16 12,2 C 10,6 C 75 % 1005,5 hPa 0,0 l/m 0 min 0 min 0,0 UV-I 21 W/m 15,4 km/h (3 Bft)
21.03.2014 07:18 12,2 C 10,6 C 75 % 1005,5 hPa 0,0 l/m 0 min 0 min 0,0 UV-I 23 W/m 7,7 km/h (2 Bft)
21.03.2014 07:20 12,2 C 10,6 C 75 % 1005,5 hPa 0,0 l/m 0 min 0 min 0,0 UV-I 23 W/m 15,4 km/h (3 Bft)
21.03.2014 07:22 12,2 C 10,6 C 75 % 1005,5 hPa 0,0 l/m 0 min 0 min 0,0 UV-I 25 W/m 2,6 km/h (1 Bft)
21.03.2014 07:24 12,2 C 10,6 C 75 % 1005,5 hPa 0,0 l/m 0 min 0 min 0,0 UV-I 26 W/m 7,7 km/h (2 Bft)
21.03.2014 07:26 12,2 C 10,6 C 75 % 1005,4 hPa 0,0 l/m 0 min 0 min 0,0 UV-I 26 W/m 15,4 km/h (3 Bft)
21.03.2014 07:28 12,3 C 10,6 C 75 % 1005,5 hPa 0,0 l/m 0 min 0 min 0,0 UV-I 28 W/m 12,9 km/h (3 Bft)
21.03.2014 07:30 12,3 C 10,6 C 75 % 1005,4 hPa 0,0 l/m 0 min 0 min 0,0 UV-I 30 W/m 10,3 km/h (2 Bft)
21.03.2014 07:32 12,3 C 10,6 C 75 % 1005,5 hPa 0,0 l/m 0 min 0 min 0,0 UV-I 30 W/m 15,4 km/h (3 Bft)
21.03.2014 07:34 12,3 C 10,6 C 75 % 1005,4 hPa 0,0 l/m 0 min 0 min 0,0 UV-I 32 W/m 7,7 km/h (2 Bft)
21.03.2014 07:36 12,3 C 10,6 C 75 % 1005,4 hPa 0,0 l/m 0 min 0 min 0,0 UV-I 35 W/m 15,4 km/h (3 Bft)
21.03.2014 07:38 12,3 C 11,1 C 74 % 1005,3 hPa 0,0 l/m 0 min 0 min 0,0 UV-I 37 W/m 15,4 km/h (3 Bft)
21.03.2014 07:40 12,3 C 11,1 C 75 % 1005,3 hPa 0,0 l/m 0 min 0 min 0,0 UV-I 39 W/m 0,0 km/h (0 Bft)
21.03.2014 07:42 12,3 C 10,6 C 75 % 1005,4 hPa 0,0 l/m 0 min 0 min 0,0 UV-I 42 W/m 12,9 km/h (3 Bft)
21.03.2014 07:44 12,3 C 11,1 C 74 % 1005,4 hPa 0,0 l/m 0 min 0 min 0,0 UV-I 44 W/m 7,7 km/h (2 Bft)
21.03.2014 07:46 12,3 C 11,1 C 74 % 1005,3 hPa 0,0 l/m 0 min 0 min 0,0 UV-I 46 W/m 20,6 km/h (4 Bft)
21.03.2014 07:48 12,4 C 11,1 C 74 % 1005,3 hPa 0,0 l/m 0 min 0 min 0,0 UV-I 49 W/m 12,9 km/h (3 Bft)
21.03.2014 07:50 12,4 C 11,1 C 74 % 1005,3 hPa 0,0 l/m 0 min 0 min 0,0 UV-I 53 W/m 7,7 km/h (2 Bft)
21.03.2014 07:52 12,4 C 11,1 C 73 % 1005,3 hPa 0,0 l/m 0 min 0 min 0,0 UV-I 58 W/m 15,4 km/h (3 Bft)
21.03.2014 07:54 12,5 C 11,1 C 73 % 1005,2 hPa 0,0 l/m 0 min 0 min 0,0 UV-I 60 W/m 15,4 km/h (3 Bft)
21.03.2014 07:56 12,5 C 11,1 C 73 % 1005,2 hPa 0,0 l/m 0 min 0 min 0,0 UV-I 62 W/m 10,3 km/h (2 Bft)
21.03.2014 07:58 12,5 C 11,1 C 73 % 1005,2 hPa 0,0 l/m 0 min 0 min 0,0 UV-I 65 W/m 20,6 km/h (4 Bft)
21.03.2014 08:00 12,6 C 11,1 C 73 % 1005,3 hPa 0,0 l/m 0 min 0 min 0,0 UV-I 67 W/m 20,6 km/h (4 Bft)
21.03.2014 08:02 12,6 C 11,1 C 73 % 1005,2 hPa 0,0 l/m 0 min 0 min 0,0 UV-I 67 W/m 18,0 km/h (3 Bft)
21.03.2014 08:06 12,6 C 11,1 C 73 % 1005,2 hPa 0,0 l/m 0 min 0 min 0,0 UV-I 69 W/m 18,0 km/h (3 Bft)
21.03.2014 08:08 12,6 C 11,1 C 72 % 1005,2 hPa 0,0 l/m 0 min 0 min 0,0 UV-I 67 W/m 12,9 km/h (3 Bft)
21.03.2014 08:10 12,6 C 11,1 C 72 % 1005,2 hPa 0,0 l/m 0 min 0 min 0,0 UV-I 63 W/m 15,4 km/h (3 Bft)
21.03.2014 08:12 12,6 C 11,1 C 72 % 1005,1 hPa 0,0 l/m 0 min 0 min 0,0 UV-I 63 W/m 15,4 km/h (3 Bft)
21.03.2014 08:14 12,6 C 11,1 C 72 % 1005,2 hPa 0,0 l/m 0 min 0 min 0,0 UV-I 63 W/m 10,3 km/h (2 Bft)
21.03.2014 08:16 12,6 C 11,1 C 73 % 1005,1 hPa 0,0 l/m 0 min 0 min 0,0 UV-I 67 W/m 10,3 km/h (2 Bft)
21.03.2014 08:18 12,6 C 11,1 C 72 % 1005,2 hPa 0,0 l/m 0 min 0 min 0,0 UV-I 69 W/m 15,4 km/h (3 Bft)
21.03.2014 08:20 12,6 C 11,1 C 72 % 1005,1 hPa 0,0 l/m 0 min 0 min 0,0 UV-I 69 W/m 12,9 km/h (3 Bft)
21.03.2014 08:22 12,6 C 11,1 C 73 % 1005,1 hPa 0,0 l/m 0 min 0 min 0,0 UV-I 70 W/m 7,7 km/h (2 Bft)
21.03.2014 08:24 12,6 C 11,1 C 73 % 1005,1 hPa 0,0 l/m 0 min 0 min 0,0 UV-I 70 W/m 15,4 km/h (3 Bft)
21.03.2014 08:26 12,6 C 11,1 C 72 % 1005,0 hPa 0,0 l/m 0 min 0 min 0,0 UV-I 72 W/m 18,0 km/h (3 Bft)
21.03.2014 08:28 12,6 C 11,1 C 73 % 1005,0 hPa 0,0 l/m 0 min 0 min 0,0 UV-I 76 W/m 2,6 km/h (1 Bft)
21.03.2014 08:30 12,6 C 11,1 C 73 % 1005,0 hPa 0,0 l/m 0 min 0 min 0,0 UV-I 76 W/m 10,3 km/h (2 Bft)
21.03.2014 08:32 12,6 C 11,1 C 73 % 1004,8 hPa 0,0 l/m 0 min 0 min 0,0 UV-I 77 W/m 20,6 km/h (4 Bft)
21.03.2014 08:34 12,6 C 11,7 C 73 % 1004,9 hPa 0,0 l/m 0 min 0 min 0,0 UV-I 83 W/m 15,4 km/h (3 Bft)
21.03.2014 08:36 12,7 C 11,7 C 73 % 1004,9 hPa 0,0 l/m 0 min 0 min 0,0 UV-I 84 W/m 18,0 km/h (3 Bft)
21.03.2014 08:38 12,7 C 11,7 C 73 % 1004,7 hPa 0,0 l/m 0 min 0 min 0,0 UV-I 88 W/m 12,9 km/h (3 Bft)
21.03.2014 08:40 12,7 C 11,7 C 73 % 1004,7 hPa 0,0 l/m 0 min 0 min 0,0 UV-I 91 W/m 2,6 km/h (1 Bft)
21.03.2014 08:42 12,7 C 11,7 C 73 % 1004,6 hPa 0,0 l/m 0 min 0 min 0,0 UV-I 91 W/m 7,7 km/h (2 Bft)
21.03.2014 08:44 12,7 C 11,7 C 73 % 1004,6 hPa 0,0 l/m 0 min 0 min 0,0 UV-I 91 W/m 12,9 km/h (3 Bft)
21.03.2014 08:46 12,7 C 11,7 C 73 % 1004,6 hPa 0,0 l/m 0 min 0 min 0,0 UV-I 90 W/m 12,9 km/h (3 Bft)
21.03.2014 08:48 12,8 C 11,7 C 73 % 1004,5 hPa 0,0 l/m 0 min 0 min 0,0 UV-I 95 W/m 10,3 km/h (2 Bft)
21.03.2014 08:50 12,8 C 11,7 C 72 % 1004,5 hPa 0,0 l/m 0 min 0 min 0,0 UV-I 100 W/m 10,3 km/h (2 Bft)
21.03.2014 08:52 12,8 C 11,7 C 73 % 1004,5 hPa 0,0 l/m 0 min 0 min 0,0 UV-I 104 W/m 10,3 km/h (2 Bft)
21.03.2014 08:54 12,8 C 11,7 C 72 % 1004,5 hPa 0,0 l/m 0 min 0 min 0,0 UV-I 105 W/m 18,0 km/h (3 Bft)
21.03.2014 08:56 12,9 C 11,7 C 72 % 1004,5 hPa 0,0 l/m 0 min 0 min 0,0 UV-I 111 W/m 18,0 km/h (3 Bft)
21.03.2014 08:58 12,9 C 11,7 C 72 % 1004,5 hPa 0,0 l/m 0 min 0 min 0,0 UV-I 118 W/m 10,3 km/h (2 Bft)
21.03.2014 09:00 12,9 C 11,7 C 72 % 1004,5 hPa 0,0 l/m 0 min 0 min 0,0 UV-I 121 W/m 15,4 km/h (3 Bft)
21.03.2014 09:02 12,9 C 11,7 C 72 % 1004,5 hPa 0,0 l/m 0 min 0 min 0,0 UV-I 125 W/m 12,9 km/h (3 Bft)
21.03.2014 09:06 13,0 C 12,2 C 72 % 1004,5 hPa 0,0 l/m 0 min 0 min 0,0 UV-I 132 W/m 20,6 km/h (4 Bft)
21.03.2014 09:08 13,1 C 12,2 C 71 % 1004,5 hPa 0,0 l/m 0 min 0 min 0,0 UV-I 135 W/m 18,0 km/h (3 Bft)
21.03.2014 09:10 13,1 C 12,2 C 71 % 1004,5 hPa 0,0 l/m 0 min 0 min 0,0 UV-I 144 W/m 7,7 km/h (2 Bft)
21.03.2014 09:12 13,1 C 12,2 C 71 % 1004,4 hPa 0,0 l/m 0 min 0 min 0,0 UV-I 148 W/m 7,7 km/h (2 Bft)
21.03.2014 09:14 13,2 C 12,2 C 71 % 1004,4 hPa 0,0 l/m 0 min 0 min 0,0 UV-I 160 W/m 10,3 km/h (2 Bft)
21.03.2014 09:16 13,2 C 12,2 C 71 % 1004,4 hPa 0,0 l/m 0 min 0 min 0,0 UV-I 165 W/m 15,4 km/h (3 Bft)
21.03.2014 09:18 13,2 C 12,2 C 72 % 1004,4 hPa 0,0 l/m 0 min 0 min 0,0 UV-I 169 W/m 10,3 km/h (2 Bft)
21.03.2014 09:20 13,3 C 12,2 C 72 % 1004,4 hPa 0,0 l/m 0 min 0 min 0,0 UV-I 176 W/m 12,9 km/h (3 Bft)
21.03.2014 09:22 13,3 C 12,8 C 71 % 1004,3 hPa 0,0 l/m 0 min 0 min 0,0 UV-I 183 W/m 12,9 km/h (3 Bft)
21.03.2014 09:24 13,3 C 12,8 C 71 % 1004,4 hPa 0,0 l/m 0 min 0 min 0,0 UV-I 190 W/m 7,7 km/h (2 Bft)
21.03.2014 09:26 13,4 C 12,8 C 71 % 1004,4 hPa 0,0 l/m 0 min 0 min 0,0 UV-I 199 W/m 10,3 km/h (2 Bft)
21.03.2014 09:28 13,4 C 12,8 C 70 % 1004,4 hPa 0,0 l/m 0 min 0 min 0,0 UV-I 199 W/m 18,0 km/h (3 Bft)
21.03.2014 09:30 13,4 C 12,8 C 69 % 1004,4 hPa 0,0 l/m 0 min 0 min 0,0 UV-I 197 W/m 25,7 km/h (4 Bft)
21.03.2014 09:32 13,5 C 12,8 C 69 % 1004,4 hPa 0,0 l/m 0 min 0 min 0,0 UV-I 204 W/m 15,4 km/h (3 Bft)
21.03.2014 09:34 13,6 C 12,8 C 69 % 1004,4 hPa 0,0 l/m 0 min 0 min 0,0 UV-I 207 W/m 15,4 km/h (3 Bft)
21.03.2014 09:36 13,6 C 12,8 C 69 % 1004,4 hPa 0,0 l/m 0 min 0 min 0,0 UV-I 214 W/m 10,3 km/h (2 Bft)
21.03.2014 09:38 13,6 C 12,8 C 69 % 1004,5 hPa 0,0 l/m 0 min 0 min 0,0 UV-I 221 W/m 18,0 km/h (3 Bft)
21.03.2014 09:40 13,7 C 12,8 C 69 % 1004,5 hPa 0,0 l/m 0 min 0 min 0,0 UV-I 225 W/m 23,2 km/h (4 Bft)
21.03.2014 09:42 13,7 C 13,3 C 69 % 1004,5 hPa 0,0 l/m 0 min 0 min 0,0 UV-I 221 W/m 7,7 km/h (2 Bft)
21.03.2014 09:44 13,8 C 13,3 C 69 % 1004,5 hPa 0,0 l/m 0 min 0 min 0,0 UV-I 207 W/m 15,4 km/h (3 Bft)
21.03.2014 09:46 13,8 C 13,3 C 69 % 1004,6 hPa 0,0 l/m 0 min 0 min 0,0 UV-I 193 W/m 7,7 km/h (2 Bft)
21.03.2014 09:48 13,9 C 13,3 C 69 % 1004,6 hPa 0,0 l/m 0 min 0 min 0,0 UV-I 179 W/m 5,1 km/h (1 Bft)
21.03.2014 09:50 13,9 C 13,3 C 68 % 1004,6 hPa 0,0 l/m 0 min 0 min 0,0 UV-I 192 W/m 7,7 km/h (2 Bft)
21.03.2014 09:52 13,9 C 12,8 C 69 % 1004,7 hPa 0,0 l/m 0 min 0 min 0,0 UV-I 188 W/m 23,2 km/h (4 Bft)
21.03.2014 09:54 13,9 C 13,3 C 68 % 1004,6 hPa 0,0 l/m 0 min 0 min 0,0 UV-I 171 W/m 2,6 km/h (1 Bft)
21.03.2014 09:56 13,9 C 13,3 C 69 % 1004,7 hPa 0,0 l/m 0 min 0 min 0,0 UV-I 153 W/m 12,9 km/h (3 Bft)
21.03.2014 09:58 13,9 C 12,8 C 69 % 1004,7 hPa 0,0 l/m 0 min 0 min 0,0 UV-I 160 W/m 15,4 km/h (3 Bft)
21.03.2014 10:00 13,9 C 12,8 C 68 % 1004,6 hPa 0,0 l/m 0 min 0 min 0,0 UV-I 149 W/m 12,9 km/h (3 Bft)
21.03.2014 10:02 14,0 C 12,8 C 69 % 1004,6 hPa 0,0 l/m 0 min 0 min 0,0 UV-I 104 W/m 2,6 km/h (1 Bft)
21.03.2014 10:06 13,9 C 12,8 C 69 % 1004,6 hPa 0,0 l/m 0 min 2 min 0,0 UV-I 91 W/m 18,0 km/h (3 Bft)
21.03.2014 10:08 13,8 C 12,2 C 69 % 1004,6 hPa 0,0 l/m 0 min 2 min 0,0 UV-I 88 W/m 10,3 km/h (2 Bft)
21.03.2014 10:10 13,7 C 11,7 C 71 % 1004,5 hPa 0,0 l/m 0 min 2 min 0,0 UV-I 100 W/m 18,0 km/h (3 Bft)
21.03.2014 10:12 13,6 C 11,1 C 71 % 1004,5 hPa 0,0 l/m 0 min 2 min 0,0 UV-I 111 W/m 20,6 km/h (4 Bft)
21.03.2014 10:14 13,4 C 10,6 C 72 % 1004,4 hPa 0,0 l/m 0 min 2 min 0,0 UV-I 95 W/m 12,9 km/h (3 Bft)
21.03.2014 10:16 13,3 C 10,6 C 73 % 1004,5 hPa 0,0 l/m 0 min 2 min 0,0 UV-I 81 W/m 15,4 km/h (3 Bft)
21.03.2014 10:18 13,2 C 10,0 C 73 % 1004,5 hPa 0,0 l/m 0 min 2 min 0,0 UV-I 69 W/m 25,7 km/h (4 Bft)
21.03.2014 10:20 13,1 C 10,0 C 74 % 1004,5 hPa 0,0 l/m 0 min 2 min 0,0 UV-I 105 W/m 23,2 km/h (4 Bft)
21.03.2014 10:22 13,0 C 10,0 C 74 % 1004,5 hPa 0,0 l/m 0 min 2 min 0,0 UV-I 130 W/m 30,9 km/h (5 Bft)
21.03.2014 10:24 12,9 C 10,0 C 75 % 1004,5 hPa 0,0 l/m 0 min 2 min 0,0 UV-I 104 W/m 23,2 km/h (4 Bft)
21.03.2014 10:26 12,9 C 10,0 C 75 % 1004,5 hPa 0,0 l/m 0 min 2 min 0,0 UV-I 81 W/m 20,6 km/h (4 Bft)
21.03.2014 10:28 12,8 C 10,0 C 76 % 1004,6 hPa 0,0 l/m 0 min 2 min 0,0 UV-I 63 W/m 25,7 km/h (4 Bft)
21.03.2014 10:30 12,8 C 10,0 C 75 % 1004,6 hPa 0,0 l/m 0 min 2 min 0,0 UV-I 62 W/m 23,2 km/h (4 Bft)
21.03.2014 10:32 12,7 C 10,0 C 76 % 1004,6 hPa 0,0 l/m 0 min 2 min 0,0 UV-I 81 W/m 23,2 km/h (4 Bft)
21.03.2014 10:34 12,7 C 10,0 C 77 % 1004,5 hPa 0,0 l/m 0 min 2 min 0,0 UV-I 95 W/m 7,7 km/h (2 Bft)
21.03.2014 10:36 12,6 C 10,0 C 78 % 1004,6 hPa 0,0 l/m 0 min 2 min 0,0 UV-I 70 W/m 20,6 km/h (4 Bft)
21.03.2014 10:38 12,6 C 10,0 C 78 % 1004,6 hPa 0,0 l/m 0 min 2 min 0,0 UV-I 118 W/m 10,3 km/h (2 Bft)
21.03.2014 10:40 12,5 C 10,0 C 79 % 1004,5 hPa 0,2 l/m 0 min 2 min 0,0 UV-I 132 W/m 5,1 km/h (1 Bft)
21.03.2014 10:42 12,4 C 10,0 C 79 % 1004,4 hPa 0,0 l/m 0 min 2 min 0,0 UV-I 128 W/m 18,0 km/h (3 Bft)
21.03.2014 10:44 12,4 C 10,0 C 79 % 1004,3 hPa 0,0 l/m 0 min 2 min 0,0 UV-I 134 W/m 30,9 km/h (5 Bft)
21.03.2014 10:46 12,4 C 10,0 C 79 % 1004,3 hPa 0,0 l/m 0 min 2 min 0,0 UV-I 125 W/m 15,4 km/h (3 Bft)
21.03.2014 10:48 12,4 C 10,0 C 79 % 1004,4 hPa 0,0 l/m 0 min 2 min 0,0 UV-I 134 W/m 18,0 km/h (3 Bft)
21.03.2014 10:50 12,4 C 10,0 C 80 % 1004,3 hPa 0,0 l/m 0 min 2 min 0,0 UV-I 127 W/m 10,3 km/h (2 Bft)
21.03.2014 10:52 12,4 C 10,0 C 79 % 1004,4 hPa 0,0 l/m 0 min 2 min 0,0 UV-I 113 W/m 15,4 km/h (3 Bft)
21.03.2014 10:54 12,4 C 10,0 C 80 % 1004,6 hPa 0,0 l/m 0 min 2 min 0,0 UV-I 39 W/m 2,6 km/h (1 Bft)
21.03.2014 10:56 12,4 C 10,0 C 80 % 1004,8 hPa 0,0 l/m 0 min 2 min 0,0 UV-I 76 W/m 20,6 km/h (4 Bft)
21.03.2014 10:58 12,3 C 10,0 C 80 % 1004,6 hPa 0,0 l/m 0 min 2 min 0,0 UV-I 63 W/m 20,6 km/h (4 Bft)
21.03.2014 11:00 12,3 C 9,4 C 80 % 1004,6 hPa 0,0 l/m 0 min 2 min 0,0 UV-I 79 W/m 7,7 km/h (2 Bft)
21.03.2014 11:02 12,2 C 9,4 C 81 % 1004,6 hPa 0,0 l/m 0 min 2 min 0,0 UV-I 77 W/m 7,7 km/h (2 Bft)
21.03.2014 11:06 12,0 C 9,4 C 82 % 1004,6 hPa 0,0 l/m 0 min 0 min 0,0 UV-I 63 W/m 12,9 km/h (3 Bft)
21.03.2014 11:08 11,9 C 9,4 C 82 % 1004,6 hPa 0,0 l/m 0 min 0 min 0,0 UV-I 51 W/m 5,1 km/h (1 Bft)
21.03.2014 11:10 11,9 C 9,4 C 82 % 1004,6 hPa 0,0 l/m 0 min 2 min 0,0 UV-I 51 W/m 20,6 km/h (4 Bft)
21.03.2014 11:12 11,9 C 10,0 C 82 % 1004,6 hPa 0,0 l/m 0 min 2 min 0,0 UV-I 63 W/m 20,6 km/h (4 Bft)
21.03.2014 11:14 11,9 C 10,0 C 83 % 1004,6 hPa 0,0 l/m 0 min 2 min 0,0 UV-I 65 W/m 15,4 km/h (3 Bft)
21.03.2014 11:16 11,9 C 10,0 C 82 % 1004,6 hPa 0,0 l/m 0 min 2 min 0,0 UV-I 54 W/m 20,6 km/h (4 Bft)
21.03.2014 11:18 11,9 C 10,0 C 82 % 1004,6 hPa 0,0 l/m 0 min 2 min 0,0 UV-I 56 W/m 15,4 km/h (3 Bft)
21.03.2014 11:20 11,9 C 10,0 C 82 % 1004,6 hPa 0,0 l/m 0 min 2 min 0,0 UV-I 93 W/m 15,4 km/h (3 Bft)
21.03.2014 11:22 11,9 C 10,0 C 82 % 1004,6 hPa 0,0 l/m 0 min 2 min 0,0 UV-I 84 W/m 20,6 km/h (4 Bft)
21.03.2014 11:24 11,9 C 10,0 C 82 % 1004,6 hPa 0,0 l/m 0 min 2 min 0,0 UV-I 56 W/m 12,9 km/h (3 Bft)
21.03.2014 11:26 11,9 C 10,0 C 83 % 1004,7 hPa 0,0 l/m 0 min 2 min 0,0 UV-I 79 W/m 12,9 km/h (3 Bft)
21.03.2014 11:28 11,8 C 10,0 C 83 % 1004,6 hPa 0,0 l/m 0 min 2 min 0,0 UV-I 79 W/m 20,6 km/h (4 Bft)
21.03.2014 11:30 11,8 C 10,0 C 83 % 1004,7 hPa 0,0 l/m 0 min 2 min 0,0 UV-I 107 W/m 20,6 km/h (4 Bft)
21.03.2014 11:32 11,8 C 10,0 C 83 % 1004,7 hPa 0,0 l/m 0 min 2 min 0,0 UV-I 120 W/m 12,9 km/h (3 Bft)
21.03.2014 11:34 11,8 C 10,0 C 84 % 1004,7 hPa 0,0 l/m 0 min 2 min 0,5 UV-I 171 W/m 23,2 km/h (4 Bft)
21.03.2014 11:36 11,8 C 10,0 C 85 % 1004,7 hPa 0,0 l/m 0 min 2 min 0,0 UV-I 151 W/m 15,4 km/h (3 Bft)
21.03.2014 11:38 11,7 C 10,0 C 85 % 1004,7 hPa 0,0 l/m 0 min 2 min 0,0 UV-I 160 W/m 20,6 km/h (4 Bft)
21.03.2014 11:40 11,7 C 9,4 C 85 % 1004,7 hPa 0,0 l/m 0 min 2 min 0,0 UV-I 162 W/m 33,5 km/h (5 Bft)
21.03.2014 11:42 11,7 C 9,4 C 85 % 1004,7 hPa 0,0 l/m 0 min 2 min 0,0 UV-I 102 W/m 23,2 km/h (4 Bft)
21.03.2014 11:44 11,6 C 9,4 C 85 % 1004,9 hPa 0,0 l/m 0 min 2 min 0,0 UV-I 70 W/m 28,3 km/h (4 Bft)
21.03.2014 11:46 11,6 C 9,4 C 85 % 1004,9 hPa 0,0 l/m 0 min 2 min 0,0 UV-I 84 W/m 28,3 km/h (4 Bft)
21.03.2014 11:48 11,4 C 9,4 C 86 % 1005,0 hPa 0,0 l/m 0 min 2 min 0,0 UV-I 132 W/m 28,3 km/h (4 Bft)
21.03.2014 11:50 11,4 C 9,4 C 86 % 1004,9 hPa 0,2 l/m 0 min 2 min 0,0 UV-I 139 W/m 18,0 km/h (3 Bft)
21.03.2014 11:52 11,3 C 9,4 C 87 % 1004,9 hPa 0,0 l/m 0 min 2 min 0,0 UV-I 162 W/m 20,6 km/h (4 Bft)
21.03.2014 11:54 11,3 C 9,4 C 88 % 1005,0 hPa 0,0 l/m 0 min 2 min 0,0 UV-I 142 W/m 20,6 km/h (4 Bft)
21.03.2014 11:56 11,2 C 9,4 C 89 % 1005,0 hPa 0,0 l/m 0 min 2 min 0,0 UV-I 105 W/m 30,9 km/h (5 Bft)
21.03.2014 11:58 11,2 C 9,4 C 89 % 1005,1 hPa 0,0 l/m 0 min 2 min 0,0 UV-I 111 W/m 25,7 km/h (4 Bft)
21.03.2014 12:00 11,1 C 9,4 C 89 % 1005,1 hPa 0,2 l/m 0 min 2 min 0,0 UV-I 90 W/m 12,9 km/h (3 Bft)
21.03.2014 12:02 11,1 C 9,4 C 90 % 1005,2 hPa 0,0 l/m 0 min 2 min 0,0 UV-I 81 W/m 20,6 km/h (4 Bft)
21.03.2014 12:06 10,9 C 9,4 C 90 % 1005,2 hPa 0,0 l/m 0 min 2 min 0,0 UV-I 72 W/m 18,0 km/h (3 Bft)
21.03.2014 12:08 10,9 C 9,4 C 91 % 1005,1 hPa 0,0 l/m 0 min 2 min 0,0 UV-I 51 W/m 25,7 km/h (4 Bft)
21.03.2014 12:10 10,9 C 8,9 C 91 % 1005,1 hPa 0,0 l/m 0 min 2 min 0,0 UV-I 58 W/m 18,0 km/h (3 Bft)
21.03.2014 12:12 10,9 C 9,4 C 91 % 1005,1 hPa 0,0 l/m 0 min 2 min 0,0 UV-I 53 W/m 18,0 km/h (3 Bft)
21.03.2014 12:14 10,8 C 8,9 C 91 % 1005,0 hPa 0,0 l/m 0 min 0 min 0,0 UV-I 63 W/m 30,9 km/h (5 Bft)
21.03.2014 12:16 10,9 C 8,9 C 91 % 1005,2 hPa 0,0 l/m 0 min 2 min 0,0 UV-I 49 W/m 30,9 km/h (5 Bft)
21.03.2014 12:18 10,9 C 8,9 C 92 % 1005,2 hPa 0,0 l/m 0 min 0 min 0,0 UV-I 42 W/m 25,7 km/h (4 Bft)
21.03.2014 12:20 10,9 C 8,9 C 91 % 1005,1 hPa 0,0 l/m 0 min 2 min 0,0 UV-I 47 W/m 25,7 km/h (4 Bft)
21.03.2014 12:22 10,9 C 8,9 C 91 % 1005,1 hPa 0,0 l/m 0 min 2 min 0,0 UV-I 51 W/m 25,7 km/h (4 Bft)
21.03.2014 12:24 10,9 C 8,9 C 92 % 1005,2 hPa 0,2 l/m 0 min 2 min 0,0 UV-I 53 W/m 41,2 km/h (6 Bft)
21.03.2014 12:26 10,9 C 8,9 C 92 % 1005,3 hPa 0,0 l/m 0 min 2 min 0,0 UV-I 49 W/m 10,3 km/h (2 Bft)
21.03.2014 12:28 10,9 C 8,9 C 92 % 1005,2 hPa 0,0 l/m 0 min 2 min 0,0 UV-I 42 W/m 20,6 km/h (4 Bft)
21.03.2014 12:30 10,8 C 8,9 C 92 % 1005,2 hPa 0,0 l/m 0 min 2 min 0,0 UV-I 39 W/m 15,4 km/h (3 Bft)
21.03.2014 12:32 10,8 C 8,9 C 92 % 1005,4 hPa 0,0 l/m 0 min 2 min 0,0 UV-I 44 W/m 25,7 km/h (4 Bft)
21.03.2014 12:34 10,8 C 8,9 C 92 % 1005,5 hPa 0,0 l/m 0 min 2 min 0,0 UV-I 46 W/m 15,4 km/h (3 Bft)
21.03.2014 12:36 10,8 C 8,9 C 92 % 1005,5 hPa 0,0 l/m 0 min 2 min 0,0 UV-I 69 W/m 20,6 km/h (4 Bft)
21.03.2014 12:38 10,8 C 8,9 C 92 % 1005,4 hPa 0,0 l/m 0 min 0 min 0,0 UV-I 90 W/m 15,4 km/h (3 Bft)
21.03.2014 12:40 10,8 C 8,9 C 92 % 1005,6 hPa 0,0 l/m 0 min 2 min 0,0 UV-I 74 W/m 18,0 km/h (3 Bft)
21.03.2014 12:42 10,9 C 8,9 C 92 % 1005,6 hPa 0,0 l/m 0 min 2 min 0,0 UV-I 60 W/m 33,5 km/h (5 Bft)
21.03.2014 12:44 10,9 C 8,9 C 92 % 1005,6 hPa 0,0 l/m 0 min 2 min 0,0 UV-I 81 W/m 36,0 km/h (5 Bft)
21.03.2014 12:46 10,9 C 8,9 C 92 % 1005,6 hPa 0,0 l/m 0 min 2 min 0,0 UV-I 65 W/m 36,0 km/h (5 Bft)
21.03.2014 12:48 10,9 C 8,9 C 91 % 1005,5 hPa 0,0 l/m 0 min 2 min 0,0 UV-I 90 W/m 30,9 km/h (5 Bft)
21.03.2014 12:50 10,9 C 8,9 C 91 % 1005,5 hPa 0,0 l/m 0 min 2 min 0,0 UV-I 84 W/m 48,9 km/h (6 Bft)
21.03.2014 12:52 10,9 C 8,9 C 91 % 1005,6 hPa 0,0 l/m 0 min 2 min 0,0 UV-I 100 W/m 18,0 km/h (3 Bft)
21.03.2014 12:54 11,0 C 9,4 C 91 % 1005,7 hPa 0,0 l/m 0 min 2 min 0,0 UV-I 162 W/m 15,4 km/h (3 Bft)
21.03.2014 12:56 11,1 C 9,4 C 91 % 1005,7 hPa 0,0 l/m 0 min 0 min 0,7 UV-I 250 W/m 38,6 km/h (5 Bft)
21.03.2014 12:58 11,2 C 9,4 C 91 % 1005,7 hPa 0,0 l/m 0 min 2 min 1,0 UV-I 269 W/m 28,3 km/h (4 Bft)
21.03.2014 13:00 11,3 C 9,4 C 91 % 1005,7 hPa 0,0 l/m 0 min 2 min 0,0 UV-I 269 W/m 23,2 km/h (4 Bft)
21.03.2014 13:02 11,4 C 9,4 C 90 % 1005,7 hPa 0,0 l/m 0 min 0 min 0,0 UV-I 77 W/m 12,9 km/h (3 Bft)
21.03.2014 13:06 11,3 C 9,4 C 89 % 1005,9 hPa 0,0 l/m 0 min 0 min 0,0 UV-I 81 W/m 30,9 km/h (5 Bft)
21.03.2014 13:08 11,3 C 8,9 C 89 % 1005,7 hPa 0,2 l/m 0 min 2 min 0,0 UV-I 81 W/m 43,8 km/h (6 Bft)
21.03.2014 13:10 11,3 C 9,4 C 89 % 1005,7 hPa 0,0 l/m 0 min 2 min 0,5 UV-I 172 W/m 12,9 km/h (3 Bft)
21.03.2014 13:12 11,4 C 9,4 C 89 % 1005,8 hPa 0,0 l/m 0 min 0 min 0,8 UV-I 258 W/m 15,4 km/h (3 Bft)
21.03.2014 13:14 11,4 C 9,4 C 89 % 1005,8 hPa 0,0 l/m 0 min 0 min 0,5 UV-I 167 W/m 18,0 km/h (3 Bft)
21.03.2014 13:16 11,5 C 10,0 C 88 % 1005,8 hPa 0,0 l/m 0 min 0 min 0,5 UV-I 220 W/m 18,0 km/h (3 Bft)
21.03.2014 13:18 11,6 C 9,4 C 88 % 1005,8 hPa 0,0 l/m 0 min 0 min 0,0 UV-I 146 W/m 23,2 km/h (4 Bft)
21.03.2014 13:20 11,6 C 9,4 C 88 % 1005,8 hPa 0,0 l/m 0 min 0 min 0,5 UV-I 158 W/m 28,3 km/h (4 Bft)
21.03.2014 13:22 11,6 C 9,4 C 87 % 1005,8 hPa 0,0 l/m 0 min 2 min 0,0 UV-I 137 W/m 25,7 km/h (4 Bft)
21.03.2014 13:24 11,6 C 9,4 C 87 % 1005,7 hPa 0,0 l/m 0 min 2 min 0,0 UV-I 93 W/m 30,9 km/h (5 Bft)
21.03.2014 13:26 11,6 C 9,4 C 87 % 1005,9 hPa 0,0 l/m 0 min 2 min 0,0 UV-I 19 W/m 30,9 km/h (5 Bft)
21.03.2014 13:28 11,5 C 8,9 C 87 % 1006,1 hPa 0,0 l/m 0 min 2 min 0,0 UV-I 35 W/m 30,9 km/h (5 Bft)
21.03.2014 13:30 11,1 C 8,3 C 86 % 1006,8 hPa 0,0 l/m 0 min 2 min 0,0 UV-I 172 W/m 36,0 km/h (5 Bft)
21.03.2014 13:32 10,4 C 7,8 C 85 % 1006,9 hPa 0,0 l/m 0 min 2 min 0,8 UV-I 285 W/m 30,9 km/h (5 Bft)
21.03.2014 13:34 9,9 C 7,8 C 85 % 1007,0 hPa 0,0 l/m 0 min 2 min 1,9 UV-I 243 W/m 36,0 km/h (5 Bft)
21.03.2014 13:36 9,6 C 7,8 C 86 % 1007,0 hPa 0,0 l/m 0 min 2 min 2,0 UV-I 288 W/m 25,7 km/h (4 Bft)
21.03.2014 13:38 9,4 C 7,8 C 86 % 1007,2 hPa 0,0 l/m 2 min 2 min 1,9 UV-I 585 W/m 25,7 km/h (4 Bft)
21.03.2014 13:40 9,5 C 7,8 C 87 % 1007,1 hPa 0,0 l/m 2 min 2 min 1,1 UV-I 643 W/m 20,6 km/h (4 Bft)
21.03.2014 13:42 9,6 C 8,3 C 87 % 1007,2 hPa 0,0 l/m 2 min 0 min 1,4 UV-I 643 W/m 20,6 km/h (4 Bft)
21.03.2014 13:44 9,7 C 8,3 C 88 % 1007,2 hPa 0,0 l/m 0 min 0 min 1,1 UV-I 174 W/m 20,6 km/h (4 Bft)
21.03.2014 13:46 9,8 C 8,9 C 88 % 1007,3 hPa 0,0 l/m 2 min 0 min 1,0 UV-I 656 W/m 20,6 km/h (4 Bft)
21.03.2014 13:48 9,7 C 8,3 C 87 % 1007,3 hPa 0,0 l/m 0 min 0 min 1,8 UV-I 221 W/m 25,7 km/h (4 Bft)
21.03.2014 13:50 9,6 C 7,8 C 87 % 1007,4 hPa 0,0 l/m 0 min 0 min 1,9 UV-I 221 W/m 23,2 km/h (4 Bft)
21.03.2014 13:52 9,6 C 7,8 C 86 % 1007,4 hPa 0,0 l/m 0 min 0 min 0,9 UV-I 221 W/m 23,2 km/h (4 Bft)
21.03.2014 13:54 9,7 C 8,9 C 87 % 1007,5 hPa 0,0 l/m 0 min 0 min 1,3 UV-I 221 W/m 15,4 km/h (3 Bft)
21.03.2014 13:56 9,8 C 8,9 C 87 % 1007,6 hPa 0,0 l/m 2 min 0 min 1,3 UV-I 694 W/m 15,4 km/h (3 Bft)
21.03.2014 13:58 9,8 C 8,9 C 86 % 1007,6 hPa 0,0 l/m 0 min 0 min 0,8 UV-I 214 W/m 20,6 km/h (4 Bft)
21.03.2014 14:00 9,8 C 8,9 C 86 % 1007,9 hPa 0,0 l/m 2 min 0 min 1,1 UV-I 366 W/m 25,7 km/h (4 Bft)
21.03.2014 14:02 9,7 C 8,9 C 85 % 1008,1 hPa 0,0 l/m 0 min 0 min 1,0 UV-I 250 W/m 23,2 km/h (4 Bft)
21.03.2014 14:06 9,6 C 8,3 C 85 % 1008,2 hPa 0,0 l/m 0 min 0 min 0,0 UV-I 100 W/m 15,4 km/h (3 Bft)
21.03.2014 14:08 9,5 C 7,8 C 85 % 1008,3 hPa 0,0 l/m 0 min 0 min 0,0 UV-I 51 W/m 18,0 km/h (3 Bft)
21.03.2014 14:10 9,4 C 7,8 C 84 % 1008,4 hPa 0,0 l/m 0 min 0 min 0,0 UV-I 44 W/m 23,2 km/h (4 Bft)
21.03.2014 14:12 9,3 C 7,8 C 85 % 1008,4 hPa 0,0 l/m 0 min 0 min 0,0 UV-I 37 W/m 18,0 km/h (3 Bft)
21.03.2014 14:14 9,2 C 7,8 C 85 % 1008,4 hPa 0,0 l/m 0 min 0 min 0,0 UV-I 47 W/m 23,2 km/h (4 Bft)
21.03.2014 14:16 9,0 C 7,2 C 84 % 1008,6 hPa 0,0 l/m 0 min 0 min 0,0 UV-I 49 W/m 30,9 km/h (5 Bft)
21.03.2014 14:18 8,9 C 7,2 C 84 % 1008,7 hPa 0,0 l/m 0 min 0 min 0,0 UV-I 47 W/m 20,6 km/h (4 Bft)
21.03.2014 14:20 8,8 C 7,2 C 84 % 1008,7 hPa 0,0 l/m 0 min 0 min 0,0 UV-I 58 W/m 30,9 km/h (5 Bft)
21.03.2014 14:22 8,7 C 7,2 C 84 % 1008,9 hPa 0,0 l/m 0 min 0 min 0,0 UV-I 60 W/m 36,0 km/h (5 Bft)
21.03.2014 14:24 8,6 C 6,7 C 84 % 1009,0 hPa 0,0 l/m 0 min 0 min 0,0 UV-I 54 W/m 20,6 km/h (4 Bft)
21.03.2014 14:26 8,5 C 6,7 C 84 % 1009,0 hPa 0,0 l/m 0 min 0 min 0,0 UV-I 39 W/m 33,5 km/h (5 Bft)
21.03.2014 14:28 8,4 C 6,7 C 84 % 1009,0 hPa 0,0 l/m 0 min 0 min 0,0 UV-I 32 W/m 30,9 km/h (5 Bft)
21.03.2014 14:30 8,3 C 6,7 C 85 % 1009,0 hPa 0,0 l/m 0 min 0 min 0,0 UV-I 33 W/m 25,7 km/h (4 Bft)
21.03.2014 14:32 8,1 C 6,7 C 85 % 1009,3 hPa 0,0 l/m 0 min 0 min 0,0 UV-I 47 W/m 23,2 km/h (4 Bft)
21.03.2014 14:34 8,1 C 6,7 C 84 % 1009,2 hPa 0,0 l/m 0 min 0 min 0,0 UV-I 46 W/m 38,6 km/h (5 Bft)
21.03.2014 14:36 8,0 C 6,7 C 84 % 1009,3 hPa 0,0 l/m 0 min 0 min 0,0 UV-I 42 W/m 20,6 km/h (4 Bft)
21.03.2014 14:38 8,0 C 6,7 C 84 % 1009,4 hPa 0,0 l/m 0 min 0 min 0,0 UV-I 56 W/m 25,7 km/h (4 Bft)
21.03.2014 14:40 7,9 C 6,7 C 85 % 1009,5 hPa 0,0 l/m 0 min 0 min 0,0 UV-I 83 W/m 20,6 km/h (4 Bft)
21.03.2014 14:42 7,9 C 6,7 C 85 % 1009,5 hPa 0,0 l/m 0 min 0 min 0,0 UV-I 202 W/m 7,7 km/h (2 Bft)
21.03.2014 14:44 8,1 C 7,2 C 85 % 1009,5 hPa 0,0 l/m 0 min 0 min 0,0 UV-I 237 W/m 10,3 km/h (2 Bft)
21.03.2014 14:46 8,2 C 7,2 C 85 % 1009,7 hPa 0,0 l/m 0 min 0 min 0,5 UV-I 251 W/m 10,3 km/h (2 Bft)
21.03.2014 14:48 8,4 C 7,8 C 85 % 1009,7 hPa 0,0 l/m 2 min 0 min 0,9 UV-I 411 W/m 23,2 km/h (4 Bft)
21.03.2014 14:50 8,6 C 7,8 C 84 % 1009,7 hPa 0,0 l/m 0 min 0 min 0,9 UV-I 295 W/m 18,0 km/h (3 Bft)
21.03.2014 14:52 8,7 C 7,8 C 83 % 1009,7 hPa 0,0 l/m 2 min 0 min 1,1 UV-I 295 W/m 18,0 km/h (3 Bft)
21.03.2014 14:54 8,7 C 7,8 C 83 % 1009,7 hPa 0,0 l/m 0 min 0 min 0,5 UV-I 186 W/m 18,0 km/h (3 Bft)
21.03.2014 14:56 8,7 C 7,8 C 82 % 1009,8 hPa 0,0 l/m 0 min 0 min 0,0 UV-I 185 W/m 20,6 km/h (4 Bft)
21.03.2014 14:58 8,7 C 7,8 C 82 % 1009,8 hPa 0,0 l/m 0 min 0 min 0,0 UV-I 220 W/m 10,3 km/h (2 Bft)
21.03.2014 15:00 8,7 C 7,8 C 83 % 1009,9 hPa 0,0 l/m 0 min 0 min 0,6 UV-I 221 W/m 15,4 km/h (3 Bft)
21.03.2014 15:02 8,8 C 7,8 C 83 % 1009,8 hPa 0,0 l/m 0 min 0 min 0,0 UV-I 221 W/m 10,3 km/h (2 Bft)
21.03.2014 15:06 8,8 C 7,8 C 82 % 1009,9 hPa 0,0 l/m 0 min 0 min 0,0 UV-I 167 W/m 20,6 km/h (4 Bft)
21.03.2014 15:08 8,8 C 7,8 C 82 % 1010,0 hPa 0,0 l/m 0 min 0 min 0,0 UV-I 158 W/m 7,7 km/h (2 Bft)
21.03.2014 15:10 8,7 C 7,8 C 82 % 1010,0 hPa 0,0 l/m 0 min 0 min 0,0 UV-I 139 W/m 12,9 km/h (3 Bft)
21.03.2014 15:12 8,7 C 7,8 C 82 % 1009,9 hPa 0,0 l/m 0 min 0 min 0,0 UV-I 111 W/m 12,9 km/h (3 Bft)
21.03.2014 15:14 8,7 C 7,8 C 83 % 1010,0 hPa 0,0 l/m 0 min 0 min 0,0 UV-I 84 W/m 10,3 km/h (2 Bft)
21.03.2014 15:16 8,6 C 7,2 C 83 % 1010,0 hPa 0,0 l/m 0 min 0 min 0,0 UV-I 60 W/m 18,0 km/h (3 Bft)
21.03.2014 15:18 8,5 C 7,2 C 82 % 1010,0 hPa 0,0 l/m 0 min 0 min 0,0 UV-I 46 W/m 18,0 km/h (3 Bft)
21.03.2014 15:20 8,4 C 7,2 C 83 % 1010,0 hPa 0,0 l/m 0 min 0 min 0,0 UV-I 46 W/m 18,0 km/h (3 Bft)
21.03.2014 15:22 8,3 C 6,7 C 83 % 1010,0 hPa 0,0 l/m 0 min 0 min 0,0 UV-I 58 W/m 18,0 km/h (3 Bft)
21.03.2014 15:24 8,2 C 6,7 C 83 % 1010,0 hPa 0,0 l/m 0 min 0 min 0,0 UV-I 69 W/m 10,3 km/h (2 Bft)
21.03.2014 15:26 8,2 C 7,2 C 83 % 1010,1 hPa 0,0 l/m 0 min 0 min 0,0 UV-I 83 W/m 12,9 km/h (3 Bft)
21.03.2014 15:28 8,2 C 7,2 C 84 % 1010,1 hPa 0,0 l/m 0 min 0 min 0,0 UV-I 121 W/m 18,0 km/h (3 Bft)
21.03.2014 15:30 8,2 C 7,2 C 84 % 1010,1 hPa 0,0 l/m 0 min 0 min 0,0 UV-I 107 W/m 10,3 km/h (2 Bft)
21.03.2014 15:32 8,2 C 7,2 C 83 % 1010,1 hPa 0,0 l/m 0 min 0 min 0,0 UV-I 90 W/m 10,3 km/h (2 Bft)
21.03.2014 15:34 8,2 C 7,2 C 83 % 1010,0 hPa 0,0 l/m 0 min 0 min 0,0 UV-I 67 W/m 12,9 km/h (3 Bft)
21.03.2014 15:36 8,1 C 7,2 C 83 % 1010,1 hPa 0,0 l/m 0 min 0 min 0,0 UV-I 47 W/m 10,3 km/h (2 Bft)
21.03.2014 15:38 8,1 C 7,2 C 83 % 1010,1 hPa 0,0 l/m 0 min 0 min 0,0 UV-I 44 W/m 15,4 km/h (3 Bft)
21.03.2014 15:40 8,1 C 7,2 C 84 % 1010,1 hPa 0,0 l/m 0 min 0 min 0,0 UV-I 39 W/m 0,0 km/h (0 Bft)
21.03.2014 15:42 8,1 C 7,2 C 84 % 1010,1 hPa 0,0 l/m 0 min 0 min 0,0 UV-I 37 W/m 0,0 km/h (0 Bft)
21.03.2014 15:44 8,1 C 7,2 C 84 % 1010,1 hPa 0,0 l/m 0 min 0 min 0,0 UV-I 35 W/m 7,7 km/h (2 Bft)
21.03.2014 15:46 8,1 C 7,2 C 84 % 1010,0 hPa 0,0 l/m 0 min 0 min 0,0 UV-I 33 W/m 5,1 km/h (1 Bft)
21.03.2014 15:48 8,0 C 7,2 C 83 % 1010,1 hPa 0,0 l/m 0 min 0 min 0,0 UV-I 42 W/m 15,4 km/h (3 Bft)
21.03.2014 15:50 8,0 C 7,2 C 84 % 1010,2 hPa 0,0 l/m 0 min 0 min 0,0 UV-I 46 W/m 2,6 km/h (1 Bft)
21.03.2014 15:52 7,9 C 7,2 C 84 % 1010,2 hPa 0,0 l/m 0 min 0 min 0,0 UV-I 56 W/m 5,1 km/h (1 Bft)
21.03.2014 15:54 7,9 C 7,2 C 84 % 1010,2 hPa 0,0 l/m 0 min 0 min 0,0 UV-I 42 W/m 2,6 km/h (1 Bft)
21.03.2014 15:56 7,9 C 7,2 C 84 % 1010,3 hPa 0,0 l/m 0 min 0 min 0,0 UV-I 39 W/m 20,6 km/h (4 Bft)
21.03.2014 15:58 8,0 C 7,2 C 84 % 1010,3 hPa 0,0 l/m 0 min 0 min 0,0 UV-I 37 W/m 5,1 km/h (1 Bft)
21.03.2014 16:00 8,0 C 7,2 C 84 % 1010,3 hPa 0,0 l/m 0 min 0 min 0,0 UV-I 39 W/m 5,1 km/h (1 Bft)
21.03.2014 16:02 8,0 C 7,2 C 84 % 1010,3 hPa 0,0 l/m 0 min 0 min 0,0 UV-I 46 W/m 5,1 km/h (1 Bft)
21.03.2014 16:06 8,0 C 7,2 C 83 % 1010,3 hPa 0,0 l/m 0 min 0 min 0,0 UV-I 53 W/m 10,3 km/h (2 Bft)
21.03.2014 16:08 8,0 C 7,2 C 83 % 1010,4 hPa 0,0 l/m 0 min 0 min 0,0 UV-I 44 W/m 12,9 km/h (3 Bft)
21.03.2014 16:10 8,0 C 7,2 C 83 % 1010,4 hPa 0,0 l/m 0 min 0 min 0,0 UV-I 42 W/m 2,6 km/h (1 Bft)
21.03.2014 16:12 8,1 C 7,2 C 83 % 1010,3 hPa 0,0 l/m 0 min 0 min 0,0 UV-I 33 W/m 10,3 km/h (2 Bft)
21.03.2014 16:14 8,1 C 7,2 C 83 % 1010,4 hPa 0,0 l/m 0 min 0 min 0,0 UV-I 33 W/m 7,7 km/h (2 Bft)
21.03.2014 16:16 8,1 C 7,2 C 83 % 1010,3 hPa 0,0 l/m 0 min 0 min 0,0 UV-I 56 W/m 12,9 km/h (3 Bft)
21.03.2014 16:18 8,1 C 7,8 C 83 % 1010,2 hPa 0,0 l/m 0 min 0 min 0,0 UV-I 146 W/m 12,9 km/h (3 Bft)
21.03.2014 16:20 8,2 C 7,8 C 83 % 1010,0 hPa 0,0 l/m 0 min 0 min 0,0 UV-I 158 W/m 5,1 km/h (1 Bft)
21.03.2014 16:22 8,2 C 7,8 C 83 % 1010,1 hPa 0,0 l/m 0 min 0 min 0,0 UV-I 153 W/m 0,0 km/h (0 Bft)
21.03.2014 16:24 8,3 C 7,8 C 83 % 1010,1 hPa 0,0 l/m 0 min 0 min 0,0 UV-I 155 W/m 10,3 km/h (2 Bft)
21.03.2014 16:26 8,4 C 7,8 C 83 % 1010,1 hPa 0,0 l/m 0 min 0 min 0,0 UV-I 155 W/m 10,3 km/h (2 Bft)
21.03.2014 16:28 8,4 C 7,8 C 83 % 1010,1 hPa 0,0 l/m 0 min 0 min 0,0 UV-I 158 W/m 7,7 km/h (2 Bft)
21.03.2014 16:30 8,5 C 8,3 C 82 % 1010,1 hPa 0,0 l/m 0 min 0 min 0,0 UV-I 165 W/m 2,6 km/h (1 Bft)
21.03.2014 16:32 8,5 C 8,3 C 82 % 1010,2 hPa 0,0 l/m 0 min 0 min 0,0 UV-I 135 W/m 5,1 km/h (1 Bft)
21.03.2014 16:34 8,6 C 8,3 C 82 % 1010,2 hPa 0,0 l/m 0 min 0 min 0,0 UV-I 125 W/m 12,9 km/h (3 Bft)
21.03.2014 16:36 8,5 C 8,3 C 82 % 1010,2 hPa 0,0 l/m 0 min 0 min 0,0 UV-I 141 W/m 0,0 km/h (0 Bft)
21.03.2014 16:38 8,5 C 8,3 C 82 % 1010,3 hPa 0,0 l/m 0 min 0 min 0,0 UV-I 142 W/m 2,6 km/h (1 Bft)
21.03.2014 16:40 8,5 C 8,3 C 82 % 1010,3 hPa 0,0 l/m 0 min 0 min 0,0 UV-I 118 W/m 2,6 km/h (1 Bft)
21.03.2014 16:42 8,6 C 8,3 C 82 % 1010,3 hPa 0,0 l/m 0 min 0 min 0,0 UV-I 98 W/m 0,0 km/h (0 Bft)
21.03.2014 16:44 8,5 C 7,8 C 82 % 1010,4 hPa 0,0 l/m 0 min 0 min 0,0 UV-I 90 W/m 12,9 km/h (3 Bft)
21.03.2014 16:46 8,5 C 7,8 C 82 % 1010,4 hPa 0,0 l/m 0 min 0 min 0,0 UV-I 95 W/m 0,0 km/h (0 Bft)
21.03.2014 16:48 8,5 C 7,8 C 82 % 1010,4 hPa 0,0 l/m 0 min 0 min 0,0 UV-I 102 W/m 2,6 km/h (1 Bft)
21.03.2014 16:50 8,5 C 7,8 C 82 % 1010,4 hPa 0,0 l/m 0 min 0 min 0,0 UV-I 97 W/m 7,7 km/h (2 Bft)
21.03.2014 16:52 8,5 C 7,8 C 81 % 1010,4 hPa 0,0 l/m 0 min 0 min 0,0 UV-I 79 W/m 12,9 km/h (3 Bft)
21.03.2014 16:54 8,5 C 7,8 C 81 % 1010,3 hPa 0,0 l/m 0 min 0 min 0,0 UV-I 60 W/m 5,1 km/h (1 Bft)
21.03.2014 16:56 8,5 C 7,8 C 81 % 1010,3 hPa 0,0 l/m 0 min 0 min 0,0 UV-I 72 W/m 0,0 km/h (0 Bft)
21.03.2014 16:58 8,6 C 7,8 C 82 % 1010,2 hPa 0,0 l/m 2 min 0 min 0,0 UV-I 255 W/m 7,7 km/h (2 Bft)
21.03.2014 17:00 8,7 C 7,8 C 81 % 1010,2 hPa 0,0 l/m 0 min 0 min 0,0 UV-I 84 W/m 5,1 km/h (1 Bft)
21.03.2014 17:02 8,7 C 7,8 C 80 % 1010,1 hPa 0,0 l/m 0 min 0 min 0,0 UV-I 70 W/m 5,1 km/h (1 Bft)
21.03.2014 17:06 8,6 C 7,8 C 80 % 1010,2 hPa 0,0 l/m 0 min 0 min 0,0 UV-I 69 W/m 0,0 km/h (0 Bft)
21.03.2014 17:08 8,6 C 7,8 C 80 % 1010,2 hPa 0,0 l/m 0 min 0 min 0,0 UV-I 77 W/m 10,3 km/h (2 Bft)
21.03.2014 17:10 8,6 C 7,8 C 80 % 1010,1 hPa 0,0 l/m 0 min 0 min 0,0 UV-I 65 W/m 12,9 km/h (3 Bft)
21.03.2014 17:12 8,6 C 7,8 C 79 % 1010,1 hPa 0,0 l/m 0 min 0 min 0,0 UV-I 62 W/m 10,3 km/h (2 Bft)
21.03.2014 17:14 8,6 C 7,8 C 80 % 1010,1 hPa 0,0 l/m 0 min 0 min 0,0 UV-I 51 W/m 10,3 km/h (2 Bft)
21.03.2014 17:16 8,6 C 7,8 C 80 % 1010,2 hPa 0,0 l/m 0 min 0 min 0,0 UV-I 39 W/m 7,7 km/h (2 Bft)
21.03.2014 17:18 8,6 C 7,8 C 79 % 1010,3 hPa 0,0 l/m 0 min 0 min 0,0 UV-I 37 W/m 2,6 km/h (1 Bft)
21.03.2014 17:20 8,6 C 7,8 C 79 % 1010,4 hPa 0,0 l/m 0 min 0 min 0,0 UV-I 51 W/m 10,3 km/h (2 Bft)
21.03.2014 17:22 8,7 C 7,8 C 80 % 1010,3 hPa 0,0 l/m 2 min 0 min 0,0 UV-I 158 W/m 2,6 km/h (1 Bft)
21.03.2014 17:24 8,8 C 7,8 C 79 % 1010,3 hPa 0,0 l/m 2 min 0 min 0,0 UV-I 167 W/m 2,6 km/h (1 Bft)
21.03.2014 17:26 8,9 C 7,8 C 79 % 1010,3 hPa 0,0 l/m 0 min 0 min 0,0 UV-I 88 W/m 2,6 km/h (1 Bft)
21.03.2014 17:28 8,9 C 7,8 C 79 % 1010,4 hPa 0,0 l/m 0 min 0 min 0,0 UV-I 88 W/m 5,1 km/h (1 Bft)
21.03.2014 17:30 8,9 C 7,8 C 79 % 1010,3 hPa 0,0 l/m 0 min 0 min 0,0 UV-I 74 W/m 10,3 km/h (2 Bft)
21.03.2014 17:32 8,9 C 7,8 C 79 % 1010,4 hPa 0,0 l/m 0 min 0 min 0,0 UV-I 76 W/m 10,3 km/h (2 Bft)
21.03.2014 17:34 8,9 C 7,8 C 78 % 1010,4 hPa 0,0 l/m 0 min 0 min 0,0 UV-I 62 W/m 7,7 km/h (2 Bft)
21.03.2014 17:36 8,9 C 7,8 C 78 % 1010,3 hPa 0,0 l/m 0 min 0 min 0,0 UV-I 58 W/m 7,7 km/h (2 Bft)
21.03.2014 17:38 8,9 C 7,8 C 78 % 1010,3 hPa 0,0 l/m 0 min 0 min 0,0 UV-I 70 W/m 18,0 km/h (3 Bft)
21.03.2014 17:40 8,9 C 7,8 C 78 % 1010,3 hPa 0,0 l/m 0 min 0 min 0,0 UV-I 79 W/m 0,0 km/h (0 Bft)
21.03.2014 17:42 8,9 C 7,8 C 78 % 1010,3 hPa 0,0 l/m 0 min 0 min 0,0 UV-I 76 W/m 0,0 km/h (0 Bft)
21.03.2014 17:44 8,9 C 7,8 C 78 % 1010,3 hPa 0,0 l/m 0 min 0 min 0,0 UV-I 44 W/m 15,4 km/h (3 Bft)
21.03.2014 17:46 8,8 C 7,8 C 77 % 1010,3 hPa 0,0 l/m 0 min 0 min 0,0 UV-I 35 W/m 5,1 km/h (1 Bft)
21.03.2014 17:48 8,8 C 7,8 C 77 % 1010,3 hPa 0,0 l/m 0 min 0 min 0,0 UV-I 33 W/m 15,4 km/h (3 Bft)
21.03.2014 17:50 8,8 C 7,8 C 77 % 1010,3 hPa 0,0 l/m 0 min 0 min 0,0 UV-I 63 W/m 5,1 km/h (1 Bft)
21.03.2014 17:52 8,8 C 7,8 C 77 % 1010,3 hPa 0,0 l/m 0 min 0 min 0,0 UV-I 72 W/m 2,6 km/h (1 Bft)
21.03.2014 17:54 8,8 C 7,8 C 77 % 1010,3 hPa 0,0 l/m 0 min 0 min 0,0 UV-I 58 W/m 10,3 km/h (2 Bft)
21.03.2014 17:56 8,8 C 7,8 C 77 % 1010,3 hPa 0,0 l/m 0 min 0 min 0,0 UV-I 44 W/m 5,1 km/h (1 Bft)
21.03.2014 17:58 8,8 C 7,8 C 77 % 1010,4 hPa 0,0 l/m 0 min 0 min 0,0 UV-I 35 W/m 7,7 km/h (2 Bft)
21.03.2014 18:00 8,8 C 7,8 C 77 % 1010,3 hPa 0,0 l/m 0 min 0 min 0,0 UV-I 40 W/m 10,3 km/h (2 Bft)
21.03.2014 18:02 8,8 C 7,8 C 77 % 1010,3 hPa 0,0 l/m 0 min 0 min 0,0 UV-I 49 W/m 5,1 km/h (1 Bft)
21.03.2014 18:06 8,8 C 7,8 C 77 % 1010,3 hPa 0,0 l/m 0 min 0 min 0,0 UV-I 40 W/m 12,9 km/h (3 Bft)
21.03.2014 18:08 8,8 C 7,8 C 77 % 1010,3 hPa 0,0 l/m 0 min 0 min 0,0 UV-I 35 W/m 2,6 km/h (1 Bft)
21.03.2014 18:10 8,8 C 7,8 C 77 % 1010,3 hPa 0,0 l/m 0 min 0 min 0,0 UV-I 32 W/m 0,0 km/h (0 Bft)
21.03.2014 18:12 8,8 C 7,2 C 77 % 1010,3 hPa 0,0 l/m 0 min 0 min 0,0 UV-I 28 W/m 10,3 km/h (2 Bft)
21.03.2014 18:14 8,7 C 7,2 C 77 % 1010,4 hPa 0,0 l/m 0 min 0 min 0,0 UV-I 25 W/m 18,0 km/h (3 Bft)
21.03.2014 18:16 8,7 C 7,2 C 77 % 1010,3 hPa 0,0 l/m 0 min 0 min 0,0 UV-I 19 W/m 15,4 km/h (3 Bft)
21.03.2014 18:18 8,7 C 7,2 C 77 % 1010,4 hPa 0,0 l/m 0 min 0 min 0,0 UV-I 18 W/m 5,1 km/h (1 Bft)
21.03.2014 18:20 8,7 C 7,2 C 78 % 1010,4 hPa 0,0 l/m 0 min 0 min 0,0 UV-I 18 W/m 10,3 km/h (2 Bft)
21.03.2014 18:22 8,6 C 7,2 C 78 % 1010,4 hPa 0,0 l/m 0 min 0 min 0,0 UV-I 16 W/m 5,1 km/h (1 Bft)
21.03.2014 18:24 8,6 C 7,2 C 78 % 1010,4 hPa 0,0 l/m 0 min 0 min 0,0 UV-I 16 W/m 5,1 km/h (1 Bft)
21.03.2014 18:26 8,6 C 7,2 C 78 % 1010,4 hPa 0,0 l/m 0 min 0 min 0,0 UV-I 12 W/m 5,1 km/h (1 Bft)
21.03.2014 18:28 8,6 C 7,2 C 77 % 1010,4 hPa 0,0 l/m 0 min 0 min 0,0 UV-I 11 W/m 10,3 km/h (2 Bft)
21.03.2014 18:30 8,6 C 7,2 C 78 % 1010,5 hPa 0,0 l/m 0 min 0 min 0,0 UV-I 11 W/m 12,9 km/h (3 Bft)
21.03.2014 18:32 8,6 C 7,2 C 78 % 1010,5 hPa 0,0 l/m 0 min 0 min 0,0 UV-I 11 W/m 7,7 km/h (2 Bft)
21.03.2014 18:34 8,6 C 7,2 C 78 % 1010,5 hPa 0,0 l/m 0 min 0 min 0,0 UV-I 11 W/m 0,0 km/h (0 Bft)
21.03.2014 18:36 8,6 C 7,2 C 78 % 1010,6 hPa 0,0 l/m 0 min 0 min 0,0 UV-I 9 W/m 0,0 km/h (0 Bft)
21.03.2014 18:38 8,6 C 7,2 C 78 % 1010,5 hPa 0,0 l/m 0 min 0 min 0,0 UV-I 9 W/m 0,0 km/h (0 Bft)
21.03.2014 18:40 8,6 C 7,2 C 78 % 1010,5 hPa 0,0 l/m 0 min 0 min 0,0 UV-I 9 W/m 0,0 km/h (0 Bft)
21.03.2014 18:42 8,5 C 7,2 C 78 % 1010,6 hPa 0,0 l/m 0 min 0 min 0,0 UV-I 7 W/m 0,0 km/h (0 Bft)
21.03.2014 18:44 8,5 C 7,2 C 78 % 1010,5 hPa 0,0 l/m 0 min 0 min 0,0 UV-I 7 W/m 5,1 km/h (1 Bft)
21.03.2014 18:46 8,4 C 7,2 C 77 % 1010,5 hPa 0,0 l/m 0 min 0 min 0,0 UV-I 7 W/m 0,0 km/h (0 Bft)
21.03.2014 18:48 8,4 C 6,7 C 77 % 1010,5 hPa 0,0 l/m 0 min 0 min 0,0 UV-I 5 W/m 0,0 km/h (0 Bft)
21.03.2014 18:50 8,4 C 6,7 C 78 % 1010,5 hPa 0,0 l/m 0 min 0 min 0,0 UV-I 5 W/m 0,0 km/h (0 Bft)
21.03.2014 18:52 8,3 C 6,7 C 78 % 1010,5 hPa 0,0 l/m 0 min 0 min 0,0 UV-I 5 W/m 0,0 km/h (0 Bft)
21.03.2014 18:54 8,3 C 6,7 C 78 % 1010,5 hPa 0,0 l/m 0 min 0 min 0,0 UV-I 5 W/m 7,7 km/h (2 Bft)
21.03.2014 18:56 8,3 C 6,7 C 78 % 1010,5 hPa 0,0 l/m 0 min 0 min 0,0 UV-I 0 W/m 0,0 km/h (0 Bft)
21.03.2014 18:58 8,3 C 6,7 C 78 % 1010,5 hPa 0,0 l/m 0 min 0 min 0,0 UV-I 0 W/m 0,0 km/h (0 Bft)
21.03.2014 19:00 8,3 C 6,7 C 78 % 1010,5 hPa 0,0 l/m 0 min 0 min 0,0 UV-I 0 W/m 0,0 km/h (0 Bft)
21.03.2014 19:02 8,2 C 6,7 C 78 % 1010,5 hPa 0,0 l/m 0 min 0 min 0,0 UV-I 0 W/m 0,0 km/h (0 Bft)
21.03.2014 19:06 8,2 C 6,7 C 78 % 1010,4 hPa 0,0 l/m 0 min 0 min 0,0 UV-I 0 W/m 0,0 km/h (0 Bft)
21.03.2014 19:08 8,2 C 6,7 C 78 % 1010,4 hPa 0,0 l/m 0 min 0 min 0,0 UV-I 0 W/m 0,0 km/h (0 Bft)
21.03.2014 19:10 8,2 C 6,7 C 78 % 1010,2 hPa 0,0 l/m 0 min 0 min 0,0 UV-I 0 W/m 0,0 km/h (0 Bft)
21.03.2014 19:12 8,1 C 6,1 C 78 % 1010,3 hPa 0,0 l/m 0 min 0 min 0,0 UV-I 0 W/m 0,0 km/h (0 Bft)
21.03.2014 19:14 8,0 C 6,1 C 79 % 1010,3 hPa 0,0 l/m 0 min 0 min 0,0 UV-I 0 W/m 0,0 km/h (0 Bft)
21.03.2014 19:16 8,0 C 6,1 C 79 % 1010,2 hPa 0,0 l/m 0 min 0 min 0,0 UV-I 0 W/m 0,0 km/h (0 Bft)
21.03.2014 19:18 7,9 C 6,1 C 79 % 1010,3 hPa 0,0 l/m 0 min 0 min 0,0 UV-I 0 W/m 0,0 km/h (0 Bft)
21.03.2014 19:20 7,8 C 5,6 C 79 % 1010,3 hPa 0,0 l/m 0 min 0 min 0,0 UV-I 0 W/m 0,0 km/h (0 Bft)
21.03.2014 19:22 7,8 C 5,6 C 80 % 1010,3 hPa 0,0 l/m 0 min 0 min 0,0 UV-I 0 W/m 0,0 km/h (0 Bft)
21.03.2014 19:24 7,7 C 5,6 C 80 % 1010,3 hPa 0,0 l/m 0 min 0 min 0,0 UV-I 0 W/m 0,0 km/h (0 Bft)
21.03.2014 19:26 7,6 C 5,6 C 80 % 1010,2 hPa 0,0 l/m 0 min 0 min 0,0 UV-I 0 W/m 0,0 km/h (0 Bft)
21.03.2014 19:28 7,5 C 5,0 C 81 % 1010,3 hPa 0,0 l/m 0 min 0 min 0,0 UV-I 0 W/m 0,0 km/h (0 Bft)
21.03.2014 19:30 7,4 C 5,0 C 81 % 1010,3 hPa 0,0 l/m 0 min 0 min 0,0 UV-I 0 W/m 0,0 km/h (0 Bft)
21.03.2014 19:32 7,3 C 5,0 C 81 % 1010,3 hPa 0,0 l/m 0 min 0 min 0,0 UV-I 0 W/m 0,0 km/h (0 Bft)
21.03.2014 19:34 7,2 C 5,0 C 82 % 1010,3 hPa 0,0 l/m 0 min 0 min 0,0 UV-I 0 W/m 0,0 km/h (0 Bft)
21.03.2014 19:36 7,1 C 5,0 C 82 % 1010,3 hPa 0,0 l/m 0 min 0 min 0,0 UV-I 0 W/m 0,0 km/h (0 Bft)
21.03.2014 19:38 7,0 C 4,4 C 82 % 1010,4 hPa 0,0 l/m 0 min 0 min 0,0 UV-I 0 W/m 0,0 km/h (0 Bft)
21.03.2014 19:40 6,9 C 4,4 C 83 % 1010,4 hPa 0,0 l/m 0 min 0 min 0,0 UV-I 0 W/m 0,0 km/h (0 Bft)
21.03.2014 19:42 6,8 C 4,4 C 83 % 1010,3 hPa 0,0 l/m 0 min 0 min 0,0 UV-I 0 W/m 0,0 km/h (0 Bft)
21.03.2014 19:44 6,7 C 4,4 C 83 % 1010,2 hPa 0,0 l/m 0 min 0 min 0,0 UV-I 0 W/m 0,0 km/h (0 Bft)
21.03.2014 19:46 6,6 C 4,4 C 84 % 1010,2 hPa 0,0 l/m 0 min 0 min 0,0 UV-I 0 W/m 0,0 km/h (0 Bft)
21.03.2014 19:48 6,5 C 4,4 C 84 % 1010,2 hPa 0,0 l/m 0 min 0 min 0,0 UV-I 0 W/m 0,0 km/h (0 Bft)
21.03.2014 19:50 6,4 C 4,4 C 84 % 1010,2 hPa 0,0 l/m 0 min 0 min 0,0 UV-I 0 W/m 0,0 km/h (0 Bft)
21.03.2014 19:52 6,4 C 4,4 C 85 % 1010,1 hPa 0,0 l/m 0 min 0 min 0,0 UV-I 0 W/m 0,0 km/h (0 Bft)
21.03.2014 19:54 6,3 C 3,9 C 85 % 1010,2 hPa 0,0 l/m 0 min 0 min 0,0 UV-I 0 W/m 0,0 km/h (0 Bft)
21.03.2014 19:56 6,2 C 3,9 C 85 % 1010,2 hPa 0,0 l/m 0 min 0 min 0,0 UV-I 0 W/m 0,0 km/h (0 Bft)
21.03.2014 19:58 6,2 C 3,9 C 86 % 1010,1 hPa 0,0 l/m 0 min 0 min 0,0 UV-I 0 W/m 0,0 km/h (0 Bft)
21.03.2014 20:00 6,1 C 3,9 C 86 % 1010,2 hPa 0,0 l/m 0 min 0 min 0,0 UV-I 0 W/m 0,0 km/h (0 Bft)
21.03.2014 20:02 6,1 C 3,9 C 86 % 1010,2 hPa 0,0 l/m 0 min 0 min 0,0 UV-I 0 W/m 0,0 km/h (0 Bft)
21.03.2014 20:06 6,1 C 3,9 C 86 % 1010,2 hPa 0,0 l/m 0 min 0 min 0,0 UV-I 0 W/m 0,0 km/h (0 Bft)
21.03.2014 20:08 6,0 C 3,9 C 87 % 1010,2 hPa 0,0 l/m 0 min 0 min 0,0 UV-I 0 W/m 0,0 km/h (0 Bft)
21.03.2014 20:10 5,9 C 3,9 C 87 % 1010,2 hPa 0,0 l/m 0 min 0 min 0,0 UV-I 0 W/m 0,0 km/h (0 Bft)
21.03.2014 20:12 5,9 C 3,9 C 87 % 1010,1 hPa 0,0 l/m 0 min 0 min 0,0 UV-I 0 W/m 0,0 km/h (0 Bft)
21.03.2014 20:14 5,8 C 3,9 C 87 % 1010,1 hPa 0,0 l/m 0 min 0 min 0,0 UV-I 0 W/m 0,0 km/h (0 Bft)
21.03.2014 20:16 5,8 C 3,9 C 87 % 1010,1 hPa 0,0 l/m 0 min 0 min 0,0 UV-I 0 W/m 0,0 km/h (0 Bft)
21.03.2014 20:18 5,8 C 3,9 C 87 % 1010,1 hPa 0,0 l/m 0 min 0 min 0,0 UV-I 0 W/m 0,0 km/h (0 Bft)
21.03.2014 20:20 5,7 C 3,9 C 88 % 1010,2 hPa 0,0 l/m 0 min 0 min 0,0 UV-I 0 W/m 0,0 km/h (0 Bft)
21.03.2014 20:22 5,7 C 3,9 C 88 % 1010,1 hPa 0,0 l/m 0 min 0 min 0,0 UV-I 0 W/m 0,0 km/h (0 Bft)
21.03.2014 20:24 5,7 C 3,9 C 88 % 1010,1 hPa 0,0 l/m 0 min 0 min 0,0 UV-I 0 W/m 0,0 km/h (0 Bft)
21.03.2014 20:26 5,7 C 3,9 C 88 % 1010,1 hPa 0,0 l/m 0 min 0 min 0,0 UV-I 0 W/m 0,0 km/h (0 Bft)
21.03.2014 20:28 5,6 C 3,9 C 88 % 1010,1 hPa 0,0 l/m 0 min 0 min 0,0 UV-I 0 W/m 0,0 km/h (0 Bft)
21.03.2014 20:30 5,6 C 3,9 C 88 % 1010,1 hPa 0,0 l/m 0 min 0 min 0,0 UV-I 0 W/m 0,0 km/h (0 Bft)
21.03.2014 20:32 5,6 C 3,9 C 88 % 1010,0 hPa 0,0 l/m 0 min 0 min 0,0 UV-I 0 W/m 0,0 km/h (0 Bft)
21.03.2014 20:34 5,6 C 3,9 C 88 % 1010,0 hPa 0,0 l/m 0 min 0 min 0,0 UV-I 0 W/m 0,0 km/h (0 Bft)
21.03.2014 20:36 5,5 C 3,9 C 88 % 1010,1 hPa 0,0 l/m 0 min 0 min 0,0 UV-I 0 W/m 0,0 km/h (0 Bft)
21.03.2014 20:38 5,5 C 3,9 C 88 % 1010,1 hPa 0,0 l/m 0 min 0 min 0,0 UV-I 0 W/m 0,0 km/h (0 Bft)
21.03.2014 20:40 5,5 C 3,9 C 88 % 1010,1 hPa 0,0 l/m 0 min 0 min 0,0 UV-I 0 W/m 0,0 km/h (0 Bft)
21.03.2014 20:42 5,5 C 3,9 C 88 % 1010,1 hPa 0,0 l/m 0 min 0 min 0,0 UV-I 0 W/m 0,0 km/h (0 Bft)
21.03.2014 20:44 5,5 C 3,3 C 88 % 1010,1 hPa 0,0 l/m 0 min 0 min 0,0 UV-I 0 W/m 0,0 km/h (0 Bft)
21.03.2014 20:46 5,5 C 3,3 C 88 % 1010,0 hPa 0,0 l/m 0 min 0 min 0,0 UV-I 0 W/m 0,0 km/h (0 Bft)
21.03.2014 20:48 5,4 C 3,3 C 88 % 1010,0 hPa 0,0 l/m 0 min 0 min 0,0 UV-I 0 W/m 0,0 km/h (0 Bft)
21.03.2014 20:50 5,4 C 3,3 C 88 % 1010,0 hPa 0,0 l/m 0 min 0 min 0,0 UV-I 0 W/m 0,0 km/h (0 Bft)
21.03.2014 20:52 5,4 C 3,3 C 88 % 1010,0 hPa 0,0 l/m 0 min 0 min 0,0 UV-I 0 W/m 0,0 km/h (0 Bft)
21.03.2014 20:54 5,4 C 3,3 C 88 % 1009,9 hPa 0,0 l/m 0 min 0 min 0,0 UV-I 0 W/m 0,0 km/h (0 Bft)
21.03.2014 20:56 5,4 C 3,3 C 88 % 1009,8 hPa 0,0 l/m 0 min 0 min 0,0 UV-I 0 W/m 0,0 km/h (0 Bft)
21.03.2014 20:58 5,4 C 3,3 C 88 % 1009,7 hPa 0,0 l/m 0 min 0 min 0,0 UV-I 0 W/m 0,0 km/h (0 Bft)
21.03.2014 21:00 5,4 C 3,3 C 88 % 1009,7 hPa 0,0 l/m 0 min 0 min 0,0 UV-I 0 W/m 0,0 km/h (0 Bft)
21.03.2014 21:02 5,4 C 3,9 C 88 % 1009,6 hPa 0,0 l/m 0 min 0 min 0,0 UV-I 0 W/m 0,0 km/h (0 Bft)
21.03.2014 21:06 5,4 C 3,3 C 88 % 1009,6 hPa 0,0 l/m 0 min 0 min 0,0 UV-I 0 W/m 0,0 km/h (0 Bft)
21.03.2014 21:08 5,4 C 3,3 C 88 % 1009,6 hPa 0,0 l/m 0 min 0 min 0,0 UV-I 0 W/m 0,0 km/h (0 Bft)
21.03.2014 21:10 5,4 C 3,3 C 88 % 1009,5 hPa 0,0 l/m 0 min 0 min 0,0 UV-I 0 W/m 0,0 km/h (0 Bft)
21.03.2014 21:12 5,4 C 3,3 C 88 % 1009,5 hPa 0,0 l/m 0 min 0 min 0,0 UV-I 0 W/m 0,0 km/h (0 Bft)
21.03.2014 21:14 5,4 C 3,3 C 88 % 1009,4 hPa 0,0 l/m 0 min 0 min 0,0 UV-I 0 W/m 0,0 km/h (0 Bft)
21.03.2014 21:16 5,4 C 3,3 C 88 % 1009,5 hPa 0,0 l/m 0 min 0 min 0,0 UV-I 0 W/m 0,0 km/h (0 Bft)
21.03.2014 21:18 5,4 C 3,3 C 88 % 1009,5 hPa 0,0 l/m 0 min 0 min 0,0 UV-I 0 W/m 0,0 km/h (0 Bft)
21.03.2014 21:20 5,4 C 3,3 C 88 % 1009,4 hPa 0,0 l/m 0 min 0 min 0,0 UV-I 0 W/m 0,0 km/h (0 Bft)
21.03.2014 21:22 5,4 C 3,3 C 88 % 1009,4 hPa 0,0 l/m 0 min 0 min 0,0 UV-I 0 W/m 0,0 km/h (0 Bft)
21.03.2014 21:24 5,4 C 3,3 C 88 % 1009,4 hPa 0,0 l/m 0 min 0 min 0,0 UV-I 0 W/m 0,0 km/h (0 Bft)
21.03.2014 21:26 5,3 C 3,3 C 88 % 1009,4 hPa 0,0 l/m 0 min 0 min 0,0 UV-I 0 W/m 0,0 km/h (0 Bft)
21.03.2014 21:28 5,3 C 3,3 C 88 % 1009,4 hPa 0,0 l/m 0 min 0 min 0,0 UV-I 0 W/m 0,0 km/h (0 Bft)
21.03.2014 21:30 5,3 C 3,3 C 88 % 1009,3 hPa 0,0 l/m 0 min 0 min 0,0 UV-I 0 W/m 0,0 km/h (0 Bft)
21.03.2014 21:32 5,3 C 3,3 C 88 % 1009,3 hPa 0,0 l/m 0 min 0 min 0,0 UV-I 0 W/m 0,0 km/h (0 Bft)
21.03.2014 21:34 5,3 C 3,3 C 88 % 1009,3 hPa 0,0 l/m 0 min 0 min 0,0 UV-I 0 W/m 0,0 km/h (0 Bft)
21.03.2014 21:36 5,3 C 3,3 C 88 % 1009,3 hPa 0,0 l/m 0 min 0 min 0,0 UV-I 0 W/m 0,0 km/h (0 Bft)
21.03.2014 21:38 5,2 C 3,3 C 88 % 1009,3 hPa 0,0 l/m 0 min 0 min 0,0 UV-I 0 W/m 0,0 km/h (0 Bft)
21.03.2014 21:40 5,2 C 3,3 C 88 % 1009,2 hPa 0,0 l/m 0 min 0 min 0,0 UV-I 0 W/m 0,0 km/h (0 Bft)
21.03.2014 21:42 5,2 C 3,3 C 88 % 1009,2 hPa 0,0 l/m 0 min 0 min 0,0 UV-I 0 W/m 0,0 km/h (0 Bft)
21.03.2014 21:44 5,2 C 3,3 C 88 % 1009,1 hPa 0,0 l/m 0 min 0 min 0,0 UV-I 0 W/m 0,0 km/h (0 Bft)
21.03.2014 21:46 5,2 C 3,3 C 88 % 1009,1 hPa 0,0 l/m 0 min 0 min 0,0 UV-I 0 W/m 0,0 km/h (0 Bft)
21.03.2014 21:48 5,2 C 3,3 C 88 % 1009,1 hPa 0,0 l/m 0 min 0 min 0,0 UV-I 0 W/m 2,6 km/h (1 Bft)
21.03.2014 21:50 5,1 C 3,3 C 88 % 1009,1 hPa 0,0 l/m 0 min 0 min 0,0 UV-I 0 W/m 0,0 km/h (0 Bft)
21.03.2014 21:52 5,1 C 3,3 C 88 % 1009,0 hPa 0,0 l/m 0 min 0 min 0,0 UV-I 0 W/m 0,0 km/h (0 Bft)
21.03.2014 21:54 5,1 C 3,3 C 88 % 1009,0 hPa 0,0 l/m 0 min 0 min 0,0 UV-I 0 W/m 0,0 km/h (0 Bft)
21.03.2014 21:56 5,1 C 3,3 C 88 % 1009,0 hPa 0,0 l/m 0 min 0 min 0,0 UV-I 0 W/m 2,6 km/h (1 Bft)
21.03.2014 21:58 5,1 C 3,3 C 88 % 1009,0 hPa 0,0 l/m 0 min 0 min 0,0 UV-I 0 W/m 5,1 km/h (1 Bft)
21.03.2014 22:00 5,1 C 3,3 C 88 % 1009,0 hPa 0,0 l/m 0 min 0 min 0,0 UV-I 0 W/m 0,0 km/h (0 Bft)
21.03.2014 22:02 5,1 C 3,3 C 88 % 1009,1 hPa 0,0 l/m 0 min 0 min 0,0 UV-I 0 W/m 2,6 km/h (1 Bft)
21.03.2014 22:06 5,1 C 3,9 C 88 % 1009,0 hPa 0,0 l/m 0 min 0 min 0,0 UV-I 0 W/m 0,0 km/h (0 Bft)
21.03.2014 22:08 5,1 C 3,9 C 88 % 1009,0 hPa 0,0 l/m 0 min 0 min 0,0 UV-I 0 W/m 0,0 km/h (0 Bft)
21.03.2014 22:10 5,1 C 3,9 C 88 % 1008,9 hPa 0,0 l/m 0 min 0 min 0,0 UV-I 0 W/m 2,6 km/h (1 Bft)
21.03.2014 22:12 5,1 C 3,9 C 88 % 1008,9 hPa 0,0 l/m 0 min 0 min 0,0 UV-I 0 W/m 0,0 km/h (0 Bft)
21.03.2014 22:14 5,1 C 3,9 C 88 % 1008,9 hPa 0,0 l/m 0 min 0 min 0,0 UV-I 0 W/m 0,0 km/h (0 Bft)
21.03.2014 22:16 5,1 C 3,9 C 88 % 1008,9 hPa 0,0 l/m 0 min 0 min 0,0 UV-I 0 W/m 0,0 km/h (0 Bft)
21.03.2014 22:18 5,1 C 3,9 C 88 % 1008,9 hPa 0,0 l/m 0 min 0 min 0,0 UV-I 0 W/m 0,0 km/h (0 Bft)
21.03.2014 22:20 5,1 C 3,9 C 88 % 1008,8 hPa 0,0 l/m 0 min 0 min 0,0 UV-I 0 W/m 0,0 km/h (0 Bft)
21.03.2014 22:22 5,1 C 3,9 C 88 % 1008,8 hPa 0,0 l/m 0 min 0 min 0,0 UV-I 0 W/m 0,0 km/h (0 Bft)
21.03.2014 22:24 5,1 C 3,9 C 88 % 1008,8 hPa 0,0 l/m 0 min 0 min 0,0 UV-I 0 W/m 0,0 km/h (0 Bft)
21.03.2014 22:26 5,1 C 3,9 C 88 % 1008,8 hPa 0,0 l/m 0 min 0 min 0,0 UV-I 0 W/m 5,1 km/h (1 Bft)
21.03.2014 22:28 5,1 C 3,9 C 88 % 1008,9 hPa 0,0 l/m 0 min 0 min 0,0 UV-I 0 W/m 5,1 km/h (1 Bft)
21.03.2014 22:30 5,2 C 3,9 C 88 % 1008,8 hPa 0,0 l/m 0 min 0 min 0,0 UV-I 0 W/m 0,0 km/h (0 Bft)
21.03.2014 22:32 5,2 C 3,9 C 88 % 1008,9 hPa 0,0 l/m 0 min 0 min 0,0 UV-I 0 W/m 2,6 km/h (1 Bft)
21.03.2014 22:34 5,2 C 3,9 C 88 % 1008,9 hPa 0,0 l/m 0 min 0 min 0,0 UV-I 0 W/m 0,0 km/h (0 Bft)
21.03.2014 22:36 5,2 C 3,9 C 88 % 1008,9 hPa 0,0 l/m 0 min 0 min 0,0 UV-I 0 W/m 0,0 km/h (0 Bft)
21.03.2014 22:38 5,2 C 3,9 C 88 % 1008,9 hPa 0,0 l/m 0 min 0 min 0,0 UV-I 0 W/m 0,0 km/h (0 Bft)
21.03.2014 22:40 5,2 C 3,9 C 88 % 1008,9 hPa 0,0 l/m 0 min 0 min 0,0 UV-I 0 W/m 2,6 km/h (1 Bft)
21.03.2014 22:42 5,2 C 3,9 C 88 % 1008,9 hPa 0,0 l/m 0 min 0 min 0,0 UV-I 0 W/m 0,0 km/h (0 Bft)
21.03.2014 22:44 5,2 C 3,9 C 88 % 1008,9 hPa 0,0 l/m 0 min 0 min 0,0 UV-I 0 W/m 0,0 km/h (0 Bft)
21.03.2014 22:46 5,2 C 3,9 C 88 % 1008,9 hPa 0,0 l/m 0 min 0 min 0,0 UV-I 0 W/m 2,6 km/h (1 Bft)
21.03.2014 22:48 5,2 C 3,9 C 88 % 1008,9 hPa 0,0 l/m 0 min 0 min 0,0 UV-I 0 W/m 2,6 km/h (1 Bft)
21.03.2014 22:50 5,2 C 3,9 C 88 % 1008,9 hPa 0,0 l/m 0 min 0 min 0,0 UV-I 0 W/m 0,0 km/h (0 Bft)
21.03.2014 22:52 5,3 C 3,9 C 88 % 1008,9 hPa 0,0 l/m 0 min 0 min 0,0 UV-I 0 W/m 2,6 km/h (1 Bft)
21.03.2014 22:54 5,3 C 3,9 C 88 % 1008,8 hPa 0,0 l/m 0 min 0 min 0,0 UV-I 0 W/m 0,0 km/h (0 Bft)
21.03.2014 22:56 5,3 C 3,9 C 88 % 1008,8 hPa 0,0 l/m 0 min 0 min 0,0 UV-I 0 W/m 0,0 km/h (0 Bft)
21.03.2014 22:58 5,3 C 3,9 C 88 % 1008,8 hPa 0,0 l/m 0 min 0 min 0,0 UV-I 0 W/m 0,0 km/h (0 Bft)
21.03.2014 23:00 5,3 C 3,9 C 88 % 1008,7 hPa 0,0 l/m 0 min 0 min 0,0 UV-I 0 W/m 0,0 km/h (0 Bft)
21.03.2014 23:02 5,3 C 3,9 C 88 % 1008,7 hPa 0,0 l/m 0 min 0 min 0,0 UV-I 0 W/m 0,0 km/h (0 Bft)
21.03.2014 23:06 5,4 C 3,9 C 88 % 1008,5 hPa 0,0 l/m 0 min 0 min 0,0 UV-I 0 W/m 2,6 km/h (1 Bft)
21.03.2014 23:08 5,4 C 3,9 C 88 % 1008,5 hPa 0,0 l/m 0 min 0 min 0,0 UV-I 0 W/m 7,7 km/h (2 Bft)
21.03.2014 23:10 5,4 C 4,4 C 88 % 1008,5 hPa 0,0 l/m 0 min 0 min 0,0 UV-I 0 W/m 2,6 km/h (1 Bft)
21.03.2014 23:12 5,4 C 4,4 C 88 % 1008,5 hPa 0,0 l/m 0 min 0 min 0,0 UV-I 0 W/m 2,6 km/h (1 Bft)
21.03.2014 23:14 5,5 C 4,4 C 88 % 1008,4 hPa 0,0 l/m 0 min 0 min 0,0 UV-I 0 W/m 0,0 km/h (0 Bft)
21.03.2014 23:16 5,5 C 4,4 C 88 % 1008,4 hPa 0,0 l/m 0 min 0 min 0,0 UV-I 0 W/m 0,0 km/h (0 Bft)
21.03.2014 23:18 5,5 C 4,4 C 88 % 1008,4 hPa 0,0 l/m 0 min 0 min 0,0 UV-I 0 W/m 0,0 km/h (0 Bft)
21.03.2014 23:20 5,6 C 4,4 C 88 % 1008,4 hPa 0,0 l/m 0 min 0 min 0,0 UV-I 0 W/m 5,1 km/h (1 Bft)
21.03.2014 23:22 5,6 C 4,4 C 88 % 1008,3 hPa 0,0 l/m 0 min 0 min 0,0 UV-I 0 W/m 2,6 km/h (1 Bft)
21.03.2014 23:24 5,6 C 4,4 C 88 % 1008,3 hPa 0,0 l/m 0 min 0 min 0,0 UV-I 0 W/m 2,6 km/h (1 Bft)
21.03.2014 23:26 5,6 C 4,4 C 88 % 1008,3 hPa 0,0 l/m 0 min 0 min 0,0 UV-I 0 W/m 0,0 km/h (0 Bft)
21.03.2014 23:28 5,6 C 4,4 C 88 % 1008,3 hPa 0,0 l/m 0 min 0 min 0,0 UV-I 0 W/m 5,1 km/h (1 Bft)
21.03.2014 23:30 5,6 C 4,4 C 88 % 1008,3 hPa 0,0 l/m 0 min 0 min 0,0 UV-I 0 W/m 0,0 km/h (0 Bft)
21.03.2014 23:32 5,6 C 4,4 C 88 % 1008,3 hPa 0,0 l/m 0 min 0 min 0,0 UV-I 0 W/m 0,0 km/h (0 Bft)
21.03.2014 23:34 5,6 C 4,4 C 88 % 1008,3 hPa 0,0 l/m 0 min 0 min 0,0 UV-I 0 W/m 2,6 km/h (1 Bft)
21.03.2014 23:36 5,6 C 4,4 C 88 % 1008,3 hPa 0,0 l/m 0 min 0 min 0,0 UV-I 0 W/m 5,1 km/h (1 Bft)
21.03.2014 23:38 5,7 C 4,4 C 88 % 1008,2 hPa 0,0 l/m 0 min 0 min 0,0 UV-I 0 W/m 5,1 km/h (1 Bft)
21.03.2014 23:40 5,7 C 4,4 C 88 % 1008,2 hPa 0,0 l/m 0 min 0 min 0,0 UV-I 0 W/m 7,7 km/h (2 Bft)
21.03.2014 23:42 5,7 C 4,4 C 88 % 1008,2 hPa 0,0 l/m 0 min 0 min 0,0 UV-I 0 W/m 0,0 km/h (0 Bft)
21.03.2014 23:44 5,7 C 4,4 C 88 % 1008,1 hPa 0,0 l/m 0 min 0 min 0,0 UV-I 0 W/m 0,0 km/h (0 Bft)
21.03.2014 23:46 5,8 C 4,4 C 88 % 1008,1 hPa 0,0 l/m 0 min 0 min 0,0 UV-I 0 W/m 0,0 km/h (0 Bft)
21.03.2014 23:48 5,8 C 4,4 C 88 % 1008,1 hPa 0,0 l/m 0 min 0 min 0,0 UV-I 0 W/m 2,6 km/h (1 Bft)
21.03.2014 23:50 5,8 C 5,0 C 88 % 1008,2 hPa 0,0 l/m 0 min 0 min 0,0 UV-I 0 W/m 0,0 km/h (0 Bft)
21.03.2014 23:52 5,9 C 5,0 C 88 % 1008,1 hPa 0,0 l/m 0 min 0 min 0,0 UV-I 0 W/m 0,0 km/h (0 Bft)
21.03.2014 23:54 5,9 C 5,0 C 88 % 1008,0 hPa 0,0 l/m 0 min 0 min 0,0 UV-I 0 W/m 0,0 km/h (0 Bft)
21.03.2014 23:56 5,9 C 5,0 C 87 % 1007,9 hPa 0,0 l/m 0 min 0 min 0,0 UV-I 0 W/m 5,1 km/h (1 Bft)
21.03.2014 23:58 5,9 C 5,0 C 87 % 1007,9 hPa 0,0 l/m 0 min 0 min 0,0 UV-I 0 W/m 0,0 km/h (0 Bft)
_ Min-Zeit 21:50 20:44 00:26 09:22 - - - - - 00:12
Minimum _ 5,1 C 3,3 C 59 % 1004,3 hPa - - - - - 0,0 km/h (0 Bft)
_ Max-Zeit 00:28 09:42 12:18 18:36 10:40 13:38 10:06 13:36 13:56 12:50
Maximum _ 15,3 C 13,3 C 92 % 1010,6 hPa 0,2 l/m 2 min 2 min 2,0 UV-I 694 W/m 48,9 km/h
S-SW (6 Bft)
Durchschnitt _ 10,6 C 9,0 C 77 % 1007,3 hPa #1,0 l/m #22 min. #3:04 h 1,0 UV-I 100 W/m 11,1 km/h (2 Bft)
© 2014 W. Hausmann